OCN152 EDDF-FIMP

Flight info

Callsign OCN152
Flight time 10h 27m
Altitude 35000
Route CINDY8S/18 CINDY Z74 LAMPU DCT NOMBO Y161 MAH DCT VAVOR DCT RADIZ DCT GORPA DCT EVTON DCT SOLGU DCT AKIKA DCT MAVAR DCT BITLA DCT KPC/N0461F370 UN139 KUMBI L612 BLT A16 CVO DCT SOLAM A727 LXR P751 TOKAR UA451 ASM UR780 SETIT/N0470F390 DCT XADOX DCT DWA N304 AVUSI UN304 APKAK/N0464F400 UN304 DENLI/N0463F390 UN304 MAEVA UL433 APKOT DCT TIBAG TIBAG2E
Aircraft A333/H-SDE3GHIJ2J3J5M1RVWXY/LB2D1

Departure

Time 2026-05-08 15:27
Airport Frankfurt Main Airport (EDDF)

Arrival

Time 2026-05-09 01:55
Airport Sir Seewoosagur Ramgoolam International Airport (FIMP)
Time Latitude Longitude Altitude Speed Heading
2026-05-08 14:49 50.04941 8.57784 370 ft 0 kts 20°
2026-05-08 15:14 50.04922 8.57773 368 ft 4 kts 20°
2026-05-08 15:15 50.04899 8.57756 366 ft 4 kts 42°
2026-05-08 15:15 50.04885 8.57724 363 ft 4 kts 85°
2026-05-08 15:15 50.04888 8.57689 365 ft 1 kts 113°
2026-05-08 15:15 50.04890 8.57682 365 ft 0 kts 113°
2026-05-08 15:18 50.04890 8.57683 365 ft 1 kts 113°
2026-05-08 15:18 50.04881 8.57716 362 ft 4 kts 113°
2026-05-08 15:19 50.04870 8.57756 361 ft 5 kts 113°
2026-05-08 15:19 50.04835 8.57862 370 ft 13 kts 130°
2026-05-08 15:19 50.04758 8.57916 367 ft 12 kts 181°
2026-05-08 15:19 50.04698 8.57845 368 ft 11 kts 242°
2026-05-08 15:20 50.04668 8.57734 370 ft 12 kts 250°
2026-05-08 15:20 50.04640 8.57614 366 ft 12 kts 250°
2026-05-08 15:20 50.04609 8.57485 368 ft 13 kts 249°
2026-05-08 15:20 50.04577 8.57353 367 ft 13 kts 249°
2026-05-08 15:21 50.04541 8.57203 368 ft 18 kts 250°
2026-05-08 15:21 50.04498 8.57020 367 ft 19 kts 249°
2026-05-08 15:21 50.04454 8.56837 371 ft 17 kts 250°
2026-05-08 15:21 50.04410 8.56653 367 ft 19 kts 250°
2026-05-08 15:22 50.04364 8.56455 368 ft 21 kts 250°
2026-05-08 15:22 50.04309 8.56227 365 ft 23 kts 250°
2026-05-08 15:22 50.04254 8.56000 365 ft 22 kts 249°
2026-05-08 15:22 50.04200 8.55772 360 ft 22 kts 249°
2026-05-08 15:23 50.04145 8.55545 363 ft 22 kts 250°
2026-05-08 15:23 50.04093 8.55327 365 ft 21 kts 250°
2026-05-08 15:23 50.04043 8.55120 361 ft 21 kts 249°
2026-05-08 15:23 50.03992 8.54905 361 ft 21 kts 250°
2026-05-08 15:24 50.03938 8.54678 355 ft 23 kts 249°
2026-05-08 15:24 50.03882 8.54441 355 ft 24 kts 249°
2026-05-08 15:24 50.03799 8.54224 359 ft 23 kts 245°
2026-05-08 15:24 50.03745 8.53994 356 ft 23 kts 249°
2026-05-08 15:25 50.03690 8.53765 357 ft 22 kts 249°
2026-05-08 15:25 50.03634 8.53538 353 ft 22 kts 249°
2026-05-08 15:25 50.03577 8.53305 354 ft 23 kts 250°
2026-05-08 15:25 50.03522 8.53072 347 ft 23 kts 250°
2026-05-08 15:26 50.03463 8.52843 355 ft 22 kts 247°
2026-05-08 15:26 50.03417 8.52666 335 ft 17 kts 248°
2026-05-08 15:26 50.03368 8.52595 335 ft 7 kts 183°
2026-05-08 15:26 50.03264 8.52592 335 ft 35 kts 180°
2026-05-08 15:27 50.02814 8.52599 336 ft 93 kts 179°
2026-05-08 15:27 50.01982 8.52606 338 ft 145 kts 179°
2026-05-08 15:27 50.00839 8.52612 575 ft 173 kts 177°
2026-05-08 15:27 49.99574 8.52644 1037 ft 194 kts 178°
2026-05-08 15:28 49.98165 8.52664 1633 ft 209 kts 178°
2026-05-08 15:28 49.96727 8.53224 1937 ft 222 kts 145°
2026-05-08 15:28 49.95707 8.55012 2350 ft 224 kts 120°
2026-05-08 15:28 49.94942 8.57111 2858 ft 227 kts 116°
2026-05-08 15:29 49.94265 8.59324 3400 ft 227 kts 106°
2026-05-08 15:29 49.93970 8.61782 3761 ft 238 kts 94°
2026-05-08 15:29 49.93860 8.64433 3975 ft 254 kts 92°
2026-05-08 15:29 49.93710 8.67228 4412 ft 263 kts 101°
2026-05-08 15:30 49.93041 8.69829 4996 ft 266 kts 126°
2026-05-08 15:30 49.91725 8.71849 5643 ft 267 kts 143°
2026-05-08 15:30 49.90216 8.73552 6304 ft 268 kts 145°
2026-05-08 15:30 49.88743 8.75349 6897 ft 272 kts 134°
2026-05-08 15:31 49.87612 8.77720 7458 ft 277 kts 122°
2026-05-08 15:31 49.86638 8.80341 8046 ft 281 kts 120°
2026-05-08 15:31 49.85693 8.82990 8627 ft 285 kts 121°
2026-05-08 15:31 49.84728 8.85692 9218 ft 289 kts 120°
2026-05-08 15:32 49.83739 8.88444 9809 ft 293 kts 121°
2026-05-08 15:32 49.82739 8.91211 10249 ft 299 kts 121°
2026-05-08 15:32 49.81688 8.94107 10407 ft 317 kts 121°
2026-05-08 15:32 49.80580 8.97152 10625 ft 332 kts 121°
2026-05-08 15:33 49.79417 9.00347 10853 ft 347 kts 121°
2026-05-08 15:33 49.78206 9.03669 11092 ft 361 kts 121°
2026-05-08 15:33 49.76958 9.07106 11460 ft 370 kts 119°
2026-05-08 15:33 49.75965 9.10801 11959 ft 376 kts 108°
2026-05-08 15:34 49.75276 9.14730 12508 ft 379 kts 105°
2026-05-08 15:34 49.74410 9.18538 13036 ft 382 kts 118°
2026-05-08 15:34 49.72988 9.22015 13593 ft 384 kts 127°
2026-05-08 15:34 49.71322 9.25273 14137 ft 386 kts 131°
2026-05-08 15:35 49.69535 9.28404 14643 ft 389 kts 133°
2026-05-08 15:35 49.67701 9.31487 15137 ft 391 kts 134°
2026-05-08 15:35 49.65845 9.34592 15640 ft 393 kts 134°
2026-05-08 15:35 49.63995 9.37727 16145 ft 396 kts 133°
2026-05-08 15:36 49.62052 9.40662 16619 ft 396 kts 143°
2026-05-08 15:36 49.60554 9.42390 16964 ft 397 kts 146°
2026-05-08 15:36 49.57501 9.45515 17612 ft 399 kts 149°
2026-05-08 15:36 49.55122 9.47748 18073 ft 401 kts 151°
2026-05-08 15:37 49.52709 9.49932 18494 ft 404 kts 152°
2026-05-08 15:37 49.50264 9.52118 18875 ft 407 kts 152°
2026-05-08 15:37 49.47813 9.54309 19258 ft 409 kts 152°
2026-05-08 15:37 49.45340 9.56529 19645 ft 412 kts 152°
2026-05-08 15:38 49.42853 9.58772 20020 ft 415 kts 152°
2026-05-08 15:38 49.40361 9.61028 20390 ft 417 kts 152°
2026-05-08 15:38 49.37854 9.63301 20758 ft 419 kts 152°
2026-05-08 15:38 49.35362 9.65652 21109 ft 423 kts 147°
2026-05-08 15:39 49.33067 9.68460 21465 ft 427 kts 141°
2026-05-08 15:39 49.30878 9.71510 21838 ft 430 kts 139°
2026-05-08 15:39 49.28712 9.74716 22182 ft 433 kts 137°
2026-05-08 15:39 49.26577 9.77980 22501 ft 436 kts 137°
2026-05-08 15:40 49.24427 9.81305 22842 ft 438 kts 137°
2026-05-08 15:40 49.22303 9.84587 23162 ft 441 kts 137°
2026-05-08 15:40 49.20132 9.87928 23509 ft 443 kts 137°
2026-05-08 15:40 49.17939 9.91280 23808 ft 446 kts 137°
2026-05-08 15:41 49.15736 9.94632 24117 ft 447 kts 137°
2026-05-08 15:41 49.13524 9.97985 24435 ft 448 kts 137°
2026-05-08 15:41 49.11304 10.01341 24732 ft 450 kts 137°
2026-05-08 15:41 49.09075 10.04706 25026 ft 451 kts 137°
2026-05-08 15:42 49.06864 10.08036 25298 ft 453 kts 138°
2026-05-08 15:42 49.04588 10.11377 25618 ft 454 kts 139°
2026-05-08 15:42 49.02273 10.14683 25909 ft 455 kts 140°
2026-05-08 15:42 48.99944 10.17964 26193 ft 456 kts 140°
2026-05-08 15:43 48.97605 10.21241 26465 ft 458 kts 140°
2026-05-08 15:43 48.95258 10.24528 26764 ft 459 kts 140°
2026-05-08 15:43 48.92906 10.27829 27055 ft 461 kts 140°
2026-05-08 15:43 48.90552 10.31140 27340 ft 462 kts 140°
2026-05-08 15:44 48.88977 10.33358 27523 ft 463 kts 140°
2026-05-08 15:44 48.85838 10.37777 27882 ft 465 kts 140°
2026-05-08 15:44 48.83456 10.41131 28161 ft 467 kts 139°
2026-05-08 15:44 48.81868 10.43463 28319 ft 469 kts 138°
2026-05-08 15:45 48.79607 10.46968 28546 ft 472 kts 137°
2026-05-08 15:45 48.77349 10.50598 28808 ft 474 kts 136°
2026-05-08 15:45 48.75090 10.54272 28981 ft 477 kts 137°
2026-05-08 15:45 48.72819 10.57963 29169 ft 480 kts 137°
2026-05-08 15:46 48.70526 10.61669 29417 ft 481 kts 137°
2026-05-08 15:46 48.68221 10.65372 29682 ft 483 kts 138°
2026-05-08 15:46 48.65907 10.69068 29979 ft 483 kts 138°
2026-05-08 15:46 48.63624 10.72702 30317 ft 481 kts 138°
2026-05-08 15:47 48.61317 10.76363 30629 ft 480 kts 138°
2026-05-08 15:47 48.59007 10.80021 30894 ft 480 kts 138°
2026-05-08 15:47 48.56715 10.83669 31147 ft 479 kts 138°
2026-05-08 15:47 48.54417 10.87340 31413 ft 479 kts 138°
2026-05-08 15:48 48.49859 10.94625 31883 ft 479 kts 139°
2026-05-08 15:48 48.47563 10.98263 32161 ft 478 kts 139°
2026-05-08 15:48 48.45256 11.01878 32444 ft 477 kts 139°
2026-05-08 15:49 48.42947 11.05475 32692 ft 477 kts 139°
2026-05-08 15:49 48.40639 11.09059 32940 ft 476 kts 139°
2026-05-08 15:49 48.38329 11.12643 33194 ft 476 kts 139°
2026-05-08 15:49 48.36018 11.16224 33447 ft 475 kts 139°
2026-05-08 15:50 48.33716 11.19789 33689 ft 474 kts 139°
2026-05-08 15:50 48.31443 11.23306 33915 ft 474 kts 139°
2026-05-08 15:50 48.29174 11.26818 34262 ft 469 kts 140°
2026-05-08 15:50 48.26994 11.30490 34458 ft 473 kts 133°
2026-05-08 15:51 48.25095 11.34587 34570 ft 479 kts 127°
2026-05-08 15:51 48.23340 11.38836 34675 ft 481 kts 126°
2026-05-08 15:51 48.21659 11.43107 34825 ft 481 kts 125°
2026-05-08 15:51 48.19982 11.47467 34975 ft 482 kts 124°
2026-05-08 15:52 48.18310 11.51847 35052 ft 483 kts 124°
2026-05-08 15:52 48.14958 11.60588 35036 ft 483 kts 125°
2026-05-08 15:53 48.11581 11.69301 35051 ft 484 kts 126°
2026-05-08 15:53 48.08184 11.77983 35056 ft 491 kts 126°
2026-05-08 15:54 48.04717 11.86819 35054 ft 493 kts 126°
2026-05-08 15:54 48.01247 11.95646 35046 ft 491 kts 126°
2026-05-08 15:55 47.97785 12.04427 35059 ft 489 kts 126°
2026-05-08 15:55 47.92087 12.16790 35040 ft 475 kts 142°
2026-05-08 15:56 47.87210 12.23386 35056 ft 472 kts 146°
2026-05-08 15:56 47.82205 12.29629 35058 ft 471 kts 146°
2026-05-08 15:57 47.77148 12.35857 35039 ft 471 kts 146°
2026-05-08 15:57 47.72107 12.42096 35046 ft 470 kts 146°
2026-05-08 15:58 47.67095 12.48316 35041 ft 469 kts 146°
2026-05-08 15:58 47.62183 12.54732 35041 ft 474 kts 141°
2026-05-08 15:59 47.57642 12.61760 35036 ft 475 kts 139°
2026-05-08 15:59 47.53137 12.68958 35050 ft 476 kts 139°
2026-05-08 16:00 47.48641 12.76154 35048 ft 475 kts 139°
2026-05-08 16:00 47.44145 12.83303 35055 ft 474 kts 139°
2026-05-08 16:01 47.39666 12.90393 35049 ft 474 kts 139°
2026-05-08 16:01 47.35162 12.97496 35037 ft 474 kts 139°
2026-05-08 16:02 47.30642 13.04601 35058 ft 476 kts 139°
2026-05-08 16:02 47.26126 13.11694 35056 ft 476 kts 139°
2026-05-08 16:03 47.21585 13.18809 35055 ft 476 kts 138°
2026-05-08 16:03 47.17033 13.25921 35054 ft 476 kts 138°
2026-05-08 16:04 47.12517 13.32952 35050 ft 477 kts 139°
2026-05-08 16:04 47.07921 13.40081 35050 ft 483 kts 139°
2026-05-08 16:05 47.03282 13.47267 35050 ft 484 kts 139°
2026-05-08 16:05 46.98675 13.54394 35044 ft 483 kts 139°
2026-05-08 16:06 46.94053 13.61514 35047 ft 482 kts 139°
2026-05-08 16:06 46.89411 13.68641 35056 ft 483 kts 139°
2026-05-08 16:07 46.84795 13.75712 35031 ft 483 kts 139°
2026-05-08 16:07 46.80145 13.82819 35028 ft 483 kts 139°
2026-05-08 16:08 46.75491 13.89912 35049 ft 483 kts 139°
2026-05-08 16:08 46.70839 13.96987 35032 ft 482 kts 139°
2026-05-08 16:09 46.66978 14.02844 35033 ft 482 kts 139°
2026-05-08 16:09 46.61532 14.11078 35022 ft 482 kts 139°
2026-05-08 16:10 46.56905 14.18056 35020 ft 482 kts 139°
2026-05-08 16:10 46.52239 14.25074 34997 ft 482 kts 139°
2026-05-08 16:11 46.47554 14.32099 35023 ft 485 kts 139°
2026-05-08 16:11 46.42899 14.39066 35024 ft 482 kts 139°
2026-05-08 16:12 46.38222 14.46049 35023 ft 482 kts 139°
2026-05-08 16:12 46.33604 14.52922 35018 ft 481 kts 139°
2026-05-08 16:13 46.28933 14.59855 35022 ft 481 kts 139°
2026-05-08 16:13 46.24286 14.66735 35022 ft 480 kts 139°
2026-05-08 16:14 46.19612 14.73638 35023 ft 478 kts 139°
2026-05-08 16:14 46.14952 14.80504 35032 ft 478 kts 139°
2026-05-08 16:15 46.10245 14.87412 35022 ft 486 kts 139°
2026-05-08 16:15 46.05473 14.94401 35033 ft 491 kts 139°
2026-05-08 16:16 46.00704 15.01376 35034 ft 491 kts 139°
2026-05-08 16:16 45.95906 15.08376 35027 ft 490 kts 139°
2026-05-08 16:17 45.91924 15.14167 35026 ft 490 kts 139°
2026-05-08 16:17 45.86352 15.22248 35028 ft 489 kts 139°
2026-05-08 16:18 45.81552 15.29190 35027 ft 488 kts 139°
2026-05-08 16:18 45.76768 15.36123 35026 ft 489 kts 138°
2026-05-08 16:19 45.72108 15.43252 35028 ft 490 kts 136°
2026-05-08 16:19 45.67525 15.50416 35040 ft 490 kts 136°
2026-05-08 16:20 45.62905 15.57600 35041 ft 490 kts 137°
2026-05-08 16:20 45.58278 15.64738 35040 ft 490 kts 137°
2026-05-08 16:21 45.53638 15.71863 35039 ft 490 kts 137°
2026-05-08 16:21 45.48986 15.78985 35039 ft 491 kts 137°
2026-05-08 16:22 45.45097 15.84924 35025 ft 492 kts 137°
2026-05-08 16:22 45.39670 15.93196 35037 ft 491 kts 137°
2026-05-08 16:23 45.35000 16.00295 35038 ft 491 kts 137°
2026-05-08 16:23 45.30351 16.07342 35049 ft 491 kts 137°
2026-05-08 16:24 45.25685 16.14397 35036 ft 490 kts 137°
2026-05-08 16:24 45.21007 16.21453 35049 ft 490 kts 137°
2026-05-08 16:25 45.16324 16.28496 35025 ft 490 kts 137°
2026-05-08 16:25 45.11633 16.35533 35037 ft 490 kts 137°
2026-05-08 16:26 45.06969 16.42514 35037 ft 490 kts 137°
2026-05-08 16:26 45.02274 16.49522 35036 ft 490 kts 137°
2026-05-08 16:27 44.98375 16.55328 35034 ft 490 kts 137°
2026-05-08 16:27 44.92910 16.63447 35025 ft 490 kts 137°
2026-05-08 16:28 44.88980 16.69271 35034 ft 489 kts 137°
2026-05-08 16:28 44.84311 16.76172 35037 ft 488 kts 137°
2026-05-08 16:29 44.79610 16.83104 35036 ft 488 kts 137°
2026-05-08 16:29 44.74912 16.90014 35036 ft 488 kts 137°
2026-05-08 16:30 44.70127 16.96713 35037 ft 485 kts 142°
2026-05-08 16:30 44.65031 17.02969 35034 ft 485 kts 143°
2026-05-08 16:31 44.59890 17.09108 35035 ft 485 kts 143°
2026-05-08 16:31 44.54739 17.15225 35039 ft 485 kts 143°
2026-05-08 16:32 44.49619 17.21305 35035 ft 487 kts 143°
2026-05-08 16:32 44.44446 17.27446 35037 ft 488 kts 143°
2026-05-08 16:33 44.39262 17.33588 35036 ft 488 kts 143°
2026-05-08 16:33 44.34071 17.39724 35032 ft 488 kts 143°
2026-05-08 16:34 44.28875 17.45851 35024 ft 488 kts 143°
2026-05-08 16:34 44.23718 17.51916 35025 ft 487 kts 143°
2026-05-08 16:35 44.18523 17.58009 35019 ft 487 kts 143°
2026-05-08 16:35 44.13337 17.64080 35021 ft 486 kts 143°
2026-05-08 16:36 44.08229 17.70270 35027 ft 486 kts 141°
2026-05-08 16:36 44.03269 17.76605 35021 ft 486 kts 140°
2026-05-08 16:37 43.98293 17.82981 35021 ft 485 kts 140°
2026-05-08 16:37 43.93344 17.89268 35013 ft 485 kts 140°
2026-05-08 16:38 43.88355 17.95567 35004 ft 485 kts 140°
2026-05-08 16:38 43.83343 18.01870 35001 ft 486 kts 140°
2026-05-08 16:39 43.78328 18.08162 34997 ft 486 kts 140°
2026-05-08 16:39 43.73309 18.14449 34997 ft 487 kts 140°
2026-05-08 16:40 43.68314 18.20692 34997 ft 487 kts 140°
2026-05-08 16:40 43.63275 18.26973 34999 ft 487 kts 140°
2026-05-08 16:41 43.58225 18.33255 35005 ft 487 kts 140°
2026-05-08 16:42 43.50701 18.42586 35002 ft 487 kts 140°
2026-05-08 16:42 43.45642 18.48840 35003 ft 489 kts 141°
2026-05-08 16:43 43.40558 18.55111 35001 ft 491 kts 141°
2026-05-08 16:43 43.35498 18.61338 35001 ft 491 kts 141°
2026-05-08 16:44 43.30398 18.67601 35001 ft 491 kts 141°
2026-05-08 16:44 43.25319 18.73820 35000 ft 491 kts 141°
2026-05-08 16:45 43.20211 18.80064 34993 ft 490 kts 141°
2026-05-08 16:45 43.15102 18.86295 34989 ft 491 kts 141°
2026-05-08 16:46 43.10016 18.92480 34986 ft 491 kts 141°
2026-05-08 16:46 43.04902 18.98683 34996 ft 491 kts 141°
2026-05-08 16:47 42.99776 19.04890 34986 ft 491 kts 141°
2026-05-08 16:47 42.94648 19.11085 34989 ft 492 kts 141°
2026-05-08 16:48 42.89510 19.17280 34989 ft 493 kts 140°
2026-05-08 16:48 42.84363 19.23468 34990 ft 493 kts 141°
2026-05-08 16:49 42.79213 19.29645 34995 ft 493 kts 141°
2026-05-08 16:49 42.74086 19.35781 34990 ft 493 kts 141°
2026-05-08 16:50 42.68916 19.41956 34995 ft 494 kts 141°
2026-05-08 16:50 42.63773 19.48083 34990 ft 494 kts 141°
2026-05-08 16:51 42.58585 19.54249 34991 ft 496 kts 141°
2026-05-08 16:51 42.53364 19.60428 34995 ft 496 kts 141°
2026-05-08 16:52 42.48069 19.66327 34995 ft 496 kts 143°
2026-05-08 16:52 42.42656 19.72153 35015 ft 496 kts 143°
2026-05-08 16:53 42.34537 19.80896 35016 ft 497 kts 143°
2026-05-08 16:53 42.29165 19.86700 35016 ft 496 kts 143°
2026-05-08 16:54 42.23738 19.92559 35019 ft 497 kts 143°
2026-05-08 16:54 42.18366 19.98343 35020 ft 497 kts 143°
2026-05-08 16:55 42.12945 20.04166 35020 ft 497 kts 143°
2026-05-08 16:55 42.07551 20.09945 35025 ft 497 kts 143°
2026-05-08 16:56 42.02141 20.15729 35023 ft 497 kts 143°
2026-05-08 16:56 41.96705 20.21527 35037 ft 498 kts 143°
2026-05-08 16:57 41.91299 20.27281 35038 ft 498 kts 143°
2026-05-08 16:57 41.85857 20.33062 35038 ft 498 kts 143°
2026-05-08 16:58 41.80400 20.38845 35034 ft 498 kts 143°
2026-05-08 16:58 41.74985 20.44570 35036 ft 498 kts 143°
2026-05-08 16:59 41.69534 20.50321 35042 ft 498 kts 143°
2026-05-08 16:59 41.64082 20.56071 35032 ft 498 kts 143°
2026-05-08 17:00 41.58636 20.61819 35040 ft 499 kts 143°
2026-05-08 17:00 41.53218 20.67535 35042 ft 499 kts 143°
2026-05-08 17:01 41.47766 20.73277 35038 ft 500 kts 143°
2026-05-08 17:01 41.42301 20.79016 35043 ft 500 kts 143°
2026-05-08 17:02 41.36817 20.84759 35045 ft 500 kts 143°
2026-05-08 17:02 41.31374 20.90448 35043 ft 500 kts 143°
2026-05-08 17:03 41.25899 20.96158 35040 ft 500 kts 143°
2026-05-08 17:03 41.20442 21.01836 35045 ft 500 kts 143°
2026-05-08 17:04 41.14962 21.07525 35045 ft 500 kts 144°
2026-05-08 17:04 41.09469 21.13216 35041 ft 500 kts 144°
2026-05-08 17:05 41.03980 21.18890 35047 ft 501 kts 144°
2026-05-08 17:05 40.98476 21.24567 35044 ft 502 kts 144°
2026-05-08 17:06 40.92949 21.30254 35048 ft 503 kts 144°
2026-05-08 17:06 40.87452 21.35921 35048 ft 504 kts 143°
2026-05-08 17:07 40.82130 21.41965 35051 ft 505 kts 140°
2026-05-08 17:07 40.76904 21.48202 35051 ft 505 kts 140°
2026-05-08 17:08 40.71700 21.54382 35053 ft 505 kts 140°
2026-05-08 17:08 40.66449 21.60544 35053 ft 505 kts 141°
2026-05-08 17:09 40.61198 21.66664 35052 ft 505 kts 141°
2026-05-08 17:09 40.55953 21.72761 35058 ft 505 kts 141°
2026-05-08 17:10 40.50677 21.78883 35064 ft 505 kts 141°
2026-05-08 17:10 40.45393 21.85001 35068 ft 507 kts 141°
2026-05-08 17:11 40.40148 21.91063 35072 ft 508 kts 141°
2026-05-08 17:11 40.34865 21.97155 35074 ft 508 kts 141°
2026-05-08 17:12 40.29541 22.03281 35069 ft 508 kts 141°
2026-05-08 17:12 40.25116 22.08363 35067 ft 508 kts 141°
2026-05-08 17:13 40.18901 22.15482 35073 ft 514 kts 142°
2026-05-08 17:13 40.13486 22.21669 35051 ft 518 kts 142°
2026-05-08 17:14 40.08931 22.26868 35065 ft 518 kts 142°
2026-05-08 17:14 40.03535 22.33013 35048 ft 517 kts 142°
2026-05-08 17:15 39.98106 22.39181 35046 ft 517 kts 142°
2026-05-08 17:15 39.92652 22.45354 35046 ft 522 kts 142°
2026-05-08 17:16 39.87145 22.51577 35045 ft 524 kts 142°
2026-05-08 17:16 39.81671 22.57757 35045 ft 523 kts 142°
2026-05-08 17:17 39.76157 22.63967 35048 ft 523 kts 142°
2026-05-08 17:17 39.70654 22.70152 35040 ft 523 kts 143°
2026-05-08 17:18 39.65142 22.76331 35040 ft 526 kts 143°
2026-05-08 17:18 39.59675 22.82446 35038 ft 527 kts 143°
2026-05-08 17:19 39.54119 22.88649 35041 ft 526 kts 143°
2026-05-08 17:19 39.48564 22.94838 35037 ft 526 kts 143°
2026-05-08 17:20 39.43008 23.01014 35039 ft 526 kts 143°
2026-05-08 17:20 39.37434 23.07193 35031 ft 530 kts 144°
2026-05-08 17:21 39.31848 23.13372 35026 ft 530 kts 145°
2026-05-08 17:21 39.26242 23.19565 35026 ft 529 kts 145°
2026-05-08 17:22 39.20640 23.25739 35026 ft 529 kts 145°
2026-05-08 17:22 39.15071 23.31861 34984 ft 529 kts 146°
2026-05-08 17:23 39.09460 23.38011 35024 ft 532 kts 146°
2026-05-08 17:23 39.03806 23.44199 35010 ft 532 kts 146°
2026-05-08 17:24 38.98164 23.50367 35016 ft 530 kts 146°
2026-05-08 17:24 38.92568 23.56468 35024 ft 529 kts 146°
2026-05-08 17:25 38.86937 23.62590 34988 ft 529 kts 146°
2026-05-08 17:25 38.81315 23.68687 35026 ft 533 kts 146°
2026-05-08 17:26 38.75633 23.74839 35027 ft 534 kts 146°
2026-05-08 17:26 38.69960 23.80971 35027 ft 533 kts 147°
2026-05-08 17:27 38.64323 23.87048 35024 ft 532 kts 146°
2026-05-08 17:27 38.58647 23.93155 35015 ft 532 kts 146°
2026-05-08 17:28 38.52957 23.99258 35034 ft 534 kts 146°
2026-05-08 17:28 38.47267 24.05357 35037 ft 534 kts 146°
2026-05-08 17:29 38.41572 24.11447 35040 ft 534 kts 146°
2026-05-08 17:29 38.35905 24.17494 35048 ft 533 kts 147°
2026-05-08 17:30 38.30202 24.23565 35054 ft 533 kts 146°
2026-05-08 17:30 38.24501 24.29620 35053 ft 533 kts 146°
2026-05-08 17:31 38.18821 24.35642 35053 ft 533 kts 146°
2026-05-08 17:31 38.13107 24.41687 35057 ft 532 kts 146°
2026-05-08 17:32 38.07449 24.47662 35060 ft 531 kts 146°
2026-05-08 17:32 38.01767 24.53646 35057 ft 530 kts 146°
2026-05-08 17:33 37.96084 24.59618 35064 ft 531 kts 146°
2026-05-08 17:33 37.90381 24.65600 35069 ft 531 kts 146°
2026-05-08 17:34 37.84725 24.71520 35071 ft 531 kts 146°
2026-05-08 17:34 37.79027 24.77472 35074 ft 531 kts 147°
2026-05-08 17:35 37.73321 24.83421 35066 ft 530 kts 146°
2026-05-08 17:35 37.67656 24.89316 35075 ft 529 kts 146°
2026-05-08 17:36 37.61962 24.95225 35166 ft 530 kts 146°
2026-05-08 17:36 37.59117 24.98175 35351 ft 529 kts 146°
2026-05-08 17:36 37.56269 25.01127 35533 ft 529 kts 146°
2026-05-08 17:37 37.53428 25.04070 35747 ft 526 kts 146°
2026-05-08 17:37 37.50598 25.06999 35921 ft 525 kts 146°
2026-05-08 17:37 37.47777 25.09915 36051 ft 525 kts 146°
2026-05-08 17:37 37.44947 25.12835 36188 ft 525 kts 146°
2026-05-08 17:38 37.42160 25.15708 36332 ft 525 kts 146°
2026-05-08 17:38 37.39333 25.18621 36477 ft 525 kts 146°
2026-05-08 17:38 37.36506 25.21530 36609 ft 525 kts 146°
2026-05-08 17:38 37.33677 25.24438 36759 ft 524 kts 146°
2026-05-08 17:39 37.30858 25.27335 36893 ft 524 kts 146°
2026-05-08 17:39 37.28026 25.30240 37021 ft 524 kts 146°
2026-05-08 17:39 37.22359 25.36047 37055 ft 524 kts 146°
2026-05-08 17:40 37.16712 25.41822 37058 ft 523 kts 146°
2026-05-08 17:40 37.11086 25.47563 37034 ft 523 kts 146°
2026-05-08 17:41 37.05435 25.53318 37066 ft 523 kts 146°
2026-05-08 17:41 36.99770 25.59072 37077 ft 523 kts 146°
2026-05-08 17:42 36.94137 25.64789 37067 ft 523 kts 146°
2026-05-08 17:42 36.88476 25.70524 37087 ft 522 kts 146°
2026-05-08 17:43 36.82830 25.76230 37102 ft 522 kts 146°
2026-05-08 17:43 36.77217 25.81890 37099 ft 522 kts 146°
2026-05-08 17:44 36.71554 25.87590 37105 ft 522 kts 146°
2026-05-08 17:44 36.65908 25.93262 37103 ft 522 kts 146°
2026-05-08 17:45 36.60243 25.98942 37100 ft 522 kts 146°
2026-05-08 17:45 36.54611 26.04578 37108 ft 522 kts 146°
2026-05-08 17:46 36.48945 26.10237 37105 ft 522 kts 146°
2026-05-08 17:46 36.43275 26.15890 37108 ft 522 kts 146°
2026-05-08 17:47 36.37604 26.21532 37107 ft 522 kts 146°
2026-05-08 17:47 36.32887 26.26217 37080 ft 522 kts 146°
2026-05-08 17:48 36.26282 26.32763 37102 ft 523 kts 147°
2026-05-08 17:48 36.20592 26.38392 37103 ft 522 kts 147°
2026-05-08 17:49 36.14909 26.44004 37122 ft 522 kts 147°
2026-05-08 17:49 36.09248 26.49583 37104 ft 522 kts 147°
2026-05-08 17:50 36.03553 26.55185 37073 ft 522 kts 147°
2026-05-08 17:50 35.97854 26.60779 37109 ft 524 kts 147°
2026-05-08 17:51 35.92162 26.66356 37115 ft 524 kts 147°
2026-05-08 17:51 35.86442 26.71950 37115 ft 524 kts 147°
2026-05-08 17:52 35.80730 26.77526 37118 ft 524 kts 147°
2026-05-08 17:53 35.72142 26.85890 37117 ft 525 kts 147°
2026-05-08 17:53 35.66386 26.91480 37126 ft 528 kts 147°
2026-05-08 17:54 35.60648 26.97043 37126 ft 528 kts 147°
2026-05-08 17:54 35.54857 27.02650 37129 ft 528 kts 147°
2026-05-08 17:55 35.49094 27.08218 37130 ft 528 kts 147°
2026-05-08 17:55 35.43300 27.13805 37113 ft 528 kts 147°
2026-05-08 17:56 35.37531 27.19356 37128 ft 530 kts 147°
2026-05-08 17:56 35.31720 27.24938 37130 ft 530 kts 147°
2026-05-08 17:57 35.26893 27.29568 37129 ft 530 kts 147°
2026-05-08 17:57 35.20125 27.36046 37126 ft 530 kts 148°
2026-05-08 17:58 35.14317 27.41595 37127 ft 530 kts 148°
2026-05-08 17:58 35.09484 27.46204 37129 ft 530 kts 148°
2026-05-08 17:59 35.03656 27.51752 37134 ft 530 kts 147°
2026-05-08 17:59 34.97818 27.57299 37135 ft 530 kts 147°
2026-05-08 18:00 34.92016 27.62803 37134 ft 530 kts 147°
2026-05-08 18:00 34.83251 27.71098 37134 ft 531 kts 147°
2026-05-08 18:01 34.77431 27.76591 37139 ft 532 kts 147°
2026-05-08 18:01 34.71568 27.82116 37146 ft 532 kts 147°
2026-05-08 18:02 34.65706 27.87632 37140 ft 532 kts 147°
2026-05-08 18:02 34.59834 27.93144 37144 ft 532 kts 147°
2026-05-08 18:03 34.54001 27.98611 37144 ft 532 kts 147°
2026-05-08 18:03 34.48145 28.04090 37138 ft 531 kts 147°
2026-05-08 18:04 34.42287 28.09561 37147 ft 530 kts 147°
2026-05-08 18:04 34.36451 28.15001 37148 ft 528 kts 147°
2026-05-08 18:05 34.30608 28.20437 37149 ft 528 kts 147°
2026-05-08 18:05 34.24799 28.25831 37140 ft 528 kts 147°
2026-05-08 18:06 34.18959 28.31245 37144 ft 528 kts 147°
2026-05-08 18:06 34.13150 28.36621 37152 ft 528 kts 147°
2026-05-08 18:07 34.07310 28.42015 37149 ft 529 kts 147°
2026-05-08 18:07 34.01472 28.47399 37152 ft 529 kts 147°
2026-05-08 18:08 33.95624 28.52782 37136 ft 529 kts 147°
2026-05-08 18:08 33.89752 28.58177 37157 ft 530 kts 147°
2026-05-08 18:09 33.83867 28.63576 37154 ft 531 kts 147°
2026-05-08 18:09 33.78008 28.68940 37157 ft 531 kts 147°
2026-05-08 18:10 33.72136 28.74357 37155 ft 533 kts 143°
2026-05-08 18:10 33.66599 28.80340 37157 ft 535 kts 141°
2026-05-08 18:11 33.61198 28.86389 37156 ft 534 kts 140°
2026-05-08 18:11 33.55782 28.92490 37156 ft 533 kts 140°
2026-05-08 18:12 33.50354 28.98580 37162 ft 533 kts 140°
2026-05-08 18:12 33.44928 29.04642 37159 ft 533 kts 140°
2026-05-08 18:13 33.39539 29.10649 37162 ft 533 kts 140°
2026-05-08 18:13 33.34107 29.16692 37162 ft 533 kts 140°
2026-05-08 18:14 33.28688 29.22711 37162 ft 531 kts 140°
2026-05-08 18:14 33.23274 29.28714 37162 ft 530 kts 140°
2026-05-08 18:15 33.17855 29.34711 37162 ft 530 kts 140°
2026-05-08 18:15 33.12467 29.40663 37162 ft 530 kts 140°
2026-05-08 18:16 33.07051 29.46637 37162 ft 530 kts 140°
2026-05-08 18:16 33.01625 29.52611 37162 ft 530 kts 140°
2026-05-08 18:17 32.96229 29.58541 37162 ft 530 kts 140°
2026-05-08 18:17 32.90815 29.64482 37162 ft 529 kts 140°
2026-05-08 18:18 32.85392 29.70420 37162 ft 529 kts 140°
2026-05-08 18:18 32.79969 29.76349 37156 ft 529 kts 140°
2026-05-08 18:19 32.74535 29.82280 37160 ft 529 kts 140°
2026-05-08 18:19 32.69104 29.88196 37158 ft 530 kts 140°
2026-05-08 18:20 32.63662 29.94115 37141 ft 530 kts 140°
2026-05-08 18:20 32.58247 29.99995 37139 ft 530 kts 140°
2026-05-08 18:21 32.52800 30.05899 37141 ft 530 kts 140°
2026-05-08 18:21 32.47381 30.11762 37159 ft 530 kts 140°
2026-05-08 18:22 32.41920 30.17649 37154 ft 530 kts 140°
2026-05-08 18:22 32.36451 30.23533 37135 ft 531 kts 140°
2026-05-08 18:23 32.31019 30.29368 37143 ft 530 kts 140°
2026-05-08 18:23 32.25559 30.35225 37147 ft 529 kts 140°
2026-05-08 18:24 32.20101 30.41069 37147 ft 529 kts 140°
2026-05-08 18:24 32.14625 30.46921 37147 ft 530 kts 140°
2026-05-08 18:25 32.09181 30.52731 37144 ft 530 kts 140°
2026-05-08 18:25 32.03727 30.58541 37143 ft 530 kts 140°
2026-05-08 18:26 31.98237 30.64381 37139 ft 530 kts 140°
2026-05-08 18:26 31.92746 30.70211 37136 ft 530 kts 140°
2026-05-08 18:27 31.88216 30.75013 37132 ft 530 kts 140°
2026-05-08 18:27 31.81823 30.81779 37126 ft 530 kts 140°
2026-05-08 18:28 31.76332 30.87580 37131 ft 530 kts 140°
2026-05-08 18:28 31.70843 30.93369 37125 ft 530 kts 140°
2026-05-08 18:29 31.65342 30.99161 37123 ft 530 kts 140°
2026-05-08 18:29 31.59848 31.04937 37128 ft 530 kts 140°
2026-05-08 18:30 31.54126 31.10253 37125 ft 525 kts 153°
2026-05-08 18:30 31.50846 31.12106 37125 ft 519 kts 164°
2026-05-08 18:30 31.47393 31.13242 37123 ft 513 kts 172°
2026-05-08 18:31 31.40362 31.14759 37108 ft 512 kts 175°
2026-05-08 18:31 31.33349 31.15998 37122 ft 512 kts 176°
2026-05-08 18:32 31.26303 31.17247 37119 ft 512 kts 175°
2026-05-08 18:32 31.19261 31.18539 37117 ft 512 kts 175°
2026-05-08 18:33 31.12260 31.19843 37108 ft 511 kts 175°
2026-05-08 18:33 31.05240 31.21153 37110 ft 510 kts 175°
2026-05-08 18:34 30.98224 31.22458 37105 ft 509 kts 175°
2026-05-08 18:34 30.91219 31.23757 37105 ft 509 kts 175°
2026-05-08 18:35 30.84245 31.25048 37101 ft 510 kts 175°
2026-05-08 18:35 30.77218 31.26347 37102 ft 511 kts 175°
2026-05-08 18:36 30.70226 31.27638 37099 ft 511 kts 175°
2026-05-08 18:36 30.63197 31.28934 37083 ft 511 kts 175°
2026-05-08 18:37 30.56160 31.30230 37094 ft 511 kts 175°
2026-05-08 18:37 30.49176 31.31514 37091 ft 511 kts 175°
2026-05-08 18:38 30.42159 31.32803 37089 ft 511 kts 175°
2026-05-08 18:38 30.35134 31.34094 37088 ft 511 kts 175°
2026-05-08 18:39 30.28094 31.35386 37082 ft 510 kts 175°
2026-05-08 18:39 30.21121 31.36663 37101 ft 510 kts 175°
2026-05-08 18:40 30.14122 31.37943 37103 ft 510 kts 175°
2026-05-08 18:40 30.07129 31.39585 37102 ft 514 kts 169°
2026-05-08 18:41 30.00224 31.41784 37099 ft 515 kts 167°
2026-05-08 18:41 29.93386 31.44068 37093 ft 515 kts 167°
2026-05-08 18:42 29.86501 31.46372 37070 ft 515 kts 167°
2026-05-08 18:42 29.79604 31.48664 37072 ft 515 kts 167°
2026-05-08 18:43 29.74035 31.50506 37071 ft 515 kts 167°
2026-05-08 18:43 29.66011 31.53149 37072 ft 515 kts 167°
2026-05-08 18:44 29.60222 31.55043 37072 ft 516 kts 167°
2026-05-08 18:44 29.53353 31.57288 37067 ft 516 kts 167°
2026-05-08 18:45 29.46444 31.59544 37065 ft 515 kts 167°
2026-05-08 18:45 29.39576 31.61784 37061 ft 515 kts 167°
2026-05-08 18:46 29.32674 31.64032 37065 ft 515 kts 167°
2026-05-08 18:46 29.25780 31.66274 37059 ft 515 kts 167°
2026-05-08 18:47 29.18876 31.68516 37061 ft 515 kts 167°
2026-05-08 18:47 29.11980 31.70753 37057 ft 515 kts 167°
2026-05-08 18:48 29.05127 31.72972 37039 ft 515 kts 167°
2026-05-08 18:48 28.98219 31.75206 37049 ft 515 kts 167°
2026-05-08 18:49 28.91313 31.77413 37050 ft 515 kts 167°
2026-05-08 18:49 28.84445 31.79593 37052 ft 515 kts 167°
2026-05-08 18:50 28.77534 31.81784 37043 ft 516 kts 167°
2026-05-08 18:50 28.70603 31.83981 37049 ft 516 kts 167°
2026-05-08 18:51 28.63687 31.86171 37052 ft 516 kts 167°
2026-05-08 18:51 28.56810 31.88347 37051 ft 516 kts 167°
2026-05-08 18:52 28.49896 31.90531 37042 ft 515 kts 167°
2026-05-08 18:52 28.42973 31.92714 37051 ft 515 kts 167°
2026-05-08 18:53 28.36060 31.94892 37050 ft 515 kts 167°
2026-05-08 18:53 28.29145 31.97067 37049 ft 515 kts 167°
2026-05-08 18:54 28.22232 31.99238 37046 ft 515 kts 167°
2026-05-08 18:54 28.15366 32.01392 37049 ft 515 kts 167°
2026-05-08 18:55 28.05006 32.04637 37050 ft 515 kts 167°
2026-05-08 18:56 27.98093 32.06826 37054 ft 515 kts 166°
2026-05-08 18:56 27.91226 32.09027 37031 ft 515 kts 166°
2026-05-08 18:57 27.84314 32.11243 37016 ft 516 kts 166°
2026-05-08 18:57 27.77396 32.13453 37019 ft 516 kts 166°
2026-05-08 18:58 27.70476 32.15659 37004 ft 516 kts 166°
2026-05-08 18:58 27.63611 32.17845 36989 ft 516 kts 166°
2026-05-08 18:59 27.56691 32.20044 36979 ft 516 kts 166°
2026-05-08 18:59 27.49788 32.22236 36964 ft 516 kts 166°
2026-05-08 19:00 27.42865 32.24431 36976 ft 516 kts 166°
2026-05-08 19:00 27.35998 32.26606 36966 ft 515 kts 166°
2026-05-08 19:01 27.29088 32.28791 36955 ft 515 kts 166°
2026-05-08 19:01 27.22183 32.30973 36933 ft 514 kts 166°
2026-05-08 19:02 27.15292 32.33148 36948 ft 514 kts 166°
2026-05-08 19:02 27.08395 32.35322 36938 ft 514 kts 166°
2026-05-08 19:03 27.01552 32.37476 36926 ft 514 kts 166°
2026-05-08 19:03 26.94648 32.39647 36919 ft 514 kts 166°
2026-05-08 19:04 26.87757 32.41811 36916 ft 514 kts 166°
2026-05-08 19:04 26.80878 32.43969 36908 ft 513 kts 166°
2026-05-08 19:05 26.74031 32.46113 36908 ft 513 kts 166°
2026-05-08 19:05 26.67140 32.48269 36909 ft 513 kts 166°
2026-05-08 19:06 26.60248 32.50422 36902 ft 513 kts 166°
2026-05-08 19:06 26.53365 32.52570 36901 ft 513 kts 166°
2026-05-08 19:07 26.46521 32.54703 36900 ft 513 kts 166°
2026-05-08 19:07 26.39626 32.56849 36897 ft 514 kts 166°
2026-05-08 19:08 26.32739 32.58990 36897 ft 513 kts 166°
2026-05-08 19:08 26.25851 32.61129 36898 ft 513 kts 167°
2026-05-08 19:09 26.19006 32.63252 36897 ft 513 kts 167°
2026-05-08 19:09 26.12122 32.65384 36898 ft 513 kts 167°
2026-05-08 19:10 26.05251 32.67509 36898 ft 513 kts 167°
2026-05-08 19:10 25.98375 32.69635 36888 ft 512 kts 167°
2026-05-08 19:11 25.91515 32.71751 36896 ft 511 kts 167°
2026-05-08 19:11 25.84694 32.73854 36892 ft 511 kts 167°
2026-05-08 19:12 25.77841 32.75989 36884 ft 512 kts 163°
2026-05-08 19:12 25.71435 32.79469 36885 ft 515 kts 150°
2026-05-08 19:13 25.65392 32.83772 36910 ft 515 kts 147°
2026-05-08 19:13 25.59439 32.88212 36912 ft 515 kts 147°
2026-05-08 19:14 25.53519 32.92616 36905 ft 516 kts 147°
2026-05-08 19:14 25.47539 32.97025 36905 ft 516 kts 148°
2026-05-08 19:15 25.41549 33.01418 36897 ft 516 kts 148°
2026-05-08 19:15 25.35559 33.05805 36908 ft 516 kts 148°
2026-05-08 19:16 25.29599 33.10165 36909 ft 516 kts 148°
2026-05-08 19:16 25.23613 33.14539 36908 ft 516 kts 148°
2026-05-08 19:17 25.17615 33.18918 36903 ft 516 kts 148°
2026-05-08 19:17 25.11614 33.23295 36903 ft 517 kts 148°
2026-05-08 19:18 25.05613 33.27667 36900 ft 517 kts 148°
2026-05-08 19:18 24.99637 33.32015 36900 ft 517 kts 148°
2026-05-08 19:19 24.93633 33.36379 36899 ft 516 kts 148°
2026-05-08 19:19 24.87628 33.40737 36897 ft 516 kts 148°
2026-05-08 19:20 24.81626 33.45088 36898 ft 516 kts 148°
2026-05-08 19:20 24.75657 33.49411 36895 ft 516 kts 148°
2026-05-08 19:21 24.69649 33.53757 36895 ft 516 kts 148°
2026-05-08 19:21 24.63639 33.58099 36894 ft 516 kts 148°
2026-05-08 19:22 24.57637 33.62430 36898 ft 516 kts 148°
2026-05-08 19:22 24.51664 33.66735 36897 ft 516 kts 148°
2026-05-08 19:23 24.45657 33.71060 36900 ft 516 kts 148°
2026-05-08 19:23 24.39645 33.75383 36900 ft 515 kts 147°
2026-05-08 19:24 24.33687 33.79663 36903 ft 515 kts 148°
2026-05-08 19:24 24.27687 33.83968 36903 ft 515 kts 148°
2026-05-08 19:25 24.21687 33.88268 36902 ft 515 kts 148°
2026-05-08 19:25 24.15683 33.92565 36903 ft 515 kts 148°
2026-05-08 19:26 24.09683 33.96855 36906 ft 514 kts 147°
2026-05-08 19:26 24.03691 34.01135 36906 ft 514 kts 147°
2026-05-08 19:27 23.97742 34.05378 36906 ft 514 kts 147°
2026-05-08 19:27 23.91738 34.09657 36905 ft 513 kts 147°
2026-05-08 19:28 23.86748 34.13210 36906 ft 513 kts 147°
2026-05-08 19:28 23.79793 34.18161 36905 ft 514 kts 147°
2026-05-08 19:29 23.73821 34.22437 36906 ft 512 kts 147°
2026-05-08 19:29 23.68878 34.25980 36905 ft 511 kts 147°
2026-05-08 19:30 23.62921 34.30244 36916 ft 511 kts 147°
2026-05-08 19:30 23.56963 34.34500 36919 ft 511 kts 147°
2026-05-08 19:31 23.51014 34.38745 36911 ft 511 kts 147°
2026-05-08 19:31 23.45055 34.42991 36916 ft 511 kts 147°
2026-05-08 19:32 23.39107 34.47227 36918 ft 511 kts 147°
2026-05-08 19:32 23.33150 34.51463 36925 ft 510 kts 147°
2026-05-08 19:33 23.27245 34.55658 36940 ft 509 kts 147°
2026-05-08 19:33 23.21300 34.59877 36931 ft 509 kts 147°
2026-05-08 19:34 23.15362 34.64086 36935 ft 509 kts 148°
2026-05-08 19:34 23.09443 34.68278 36942 ft 507 kts 148°
2026-05-08 19:35 23.03562 34.72438 36947 ft 507 kts 148°
2026-05-08 19:35 22.97664 34.76605 36947 ft 505 kts 148°
2026-05-08 19:36 22.91775 34.80762 36952 ft 504 kts 148°
2026-05-08 19:36 22.85882 34.84917 36952 ft 504 kts 148°
2026-05-08 19:37 22.80045 34.89028 36948 ft 501 kts 149°
2026-05-08 19:37 22.74204 34.93139 36956 ft 500 kts 149°
2026-05-08 19:38 22.68377 34.97235 36954 ft 499 kts 149°
2026-05-08 19:38 22.62543 35.01331 36953 ft 499 kts 149°
2026-05-08 19:39 22.56719 35.05417 36965 ft 498 kts 149°
2026-05-08 19:39 22.50898 35.09496 36949 ft 498 kts 149°
2026-05-08 19:40 22.45077 35.13571 36959 ft 498 kts 149°
2026-05-08 19:40 22.39284 35.17622 36965 ft 498 kts 149°
2026-05-08 19:41 22.33451 35.21697 36961 ft 498 kts 149°
2026-05-08 19:41 22.27629 35.25761 36968 ft 498 kts 149°
2026-05-08 19:42 22.21806 35.29821 36967 ft 497 kts 149°
2026-05-08 19:42 22.16026 35.33848 36961 ft 497 kts 150°
2026-05-08 19:43 22.10218 35.37889 36963 ft 496 kts 150°
2026-05-08 19:43 22.04410 35.41927 36960 ft 496 kts 150°
2026-05-08 19:44 21.98604 35.45965 36957 ft 496 kts 150°
2026-05-08 19:44 21.92812 35.50035 36952 ft 496 kts 149°
2026-05-08 19:45 21.87059 35.54086 36937 ft 496 kts 150°
2026-05-08 19:45 21.81285 35.58148 36949 ft 494 kts 150°
2026-05-08 19:46 21.75521 35.62194 36954 ft 494 kts 150°
2026-05-08 19:46 21.66918 35.68221 36943 ft 494 kts 150°
2026-05-08 19:47 21.61156 35.72254 36938 ft 494 kts 150°
2026-05-08 19:47 21.55392 35.76285 36936 ft 492 kts 151°
2026-05-08 19:48 21.49675 35.80281 36932 ft 489 kts 151°
2026-05-08 19:48 21.44008 35.84237 36929 ft 488 kts 152°
2026-05-08 19:49 21.38309 35.88209 36927 ft 487 kts 152°
2026-05-08 19:49 21.32620 35.92172 36924 ft 487 kts 152°
2026-05-08 19:50 21.26963 35.96109 36925 ft 487 kts 152°
2026-05-08 19:50 21.21266 36.00071 36914 ft 487 kts 152°
2026-05-08 19:51 21.15581 36.04021 36921 ft 486 kts 152°
2026-05-08 19:51 21.09926 36.07944 36927 ft 486 kts 152°
2026-05-08 19:52 21.04237 36.11889 36921 ft 486 kts 152°
2026-05-08 19:52 20.98556 36.15827 36920 ft 486 kts 152°
2026-05-08 19:53 20.92872 36.19760 36922 ft 486 kts 152°
2026-05-08 19:53 20.87226 36.23664 36921 ft 485 kts 152°
2026-05-08 19:54 20.81560 36.27580 36917 ft 483 kts 153°
2026-05-08 19:54 20.75917 36.31475 36920 ft 482 kts 153°
2026-05-08 19:55 20.70304 36.35344 36916 ft 482 kts 153°
2026-05-08 19:55 20.64660 36.39231 36918 ft 482 kts 153°
2026-05-08 19:56 20.59021 36.43111 36920 ft 482 kts 153°
2026-05-08 19:56 20.53374 36.46994 36926 ft 482 kts 153°
2026-05-08 19:57 20.47735 36.50868 36923 ft 481 kts 154°
2026-05-08 19:57 20.42133 36.54715 36943 ft 479 kts 154°
2026-05-08 19:58 20.36515 36.58569 36926 ft 479 kts 154°
2026-05-08 19:58 20.30936 36.62390 36930 ft 479 kts 154°
2026-05-08 19:59 20.25313 36.66239 36934 ft 479 kts 154°
2026-05-08 19:59 20.19700 36.70076 36947 ft 479 kts 154°
2026-05-08 20:00 20.14106 36.73899 36932 ft 479 kts 154°
2026-05-08 20:00 20.08504 36.77726 36940 ft 478 kts 154°
2026-05-08 20:01 20.02916 36.81540 36925 ft 476 kts 154°
2026-05-08 20:01 19.97323 36.85352 36916 ft 476 kts 154°
2026-05-08 20:02 19.91749 36.89147 36928 ft 476 kts 154°
2026-05-08 20:02 19.86205 36.92922 36927 ft 475 kts 154°
2026-05-08 20:03 19.80643 36.96703 36919 ft 474 kts 154°
2026-05-08 20:03 19.75073 37.00488 36916 ft 473 kts 155°
2026-05-08 20:04 19.69571 37.04222 36906 ft 472 kts 155°
2026-05-08 20:04 19.64037 37.07975 36910 ft 471 kts 155°
2026-05-08 20:05 19.58500 37.11726 36909 ft 471 kts 155°
2026-05-08 20:05 19.52967 37.15472 36906 ft 472 kts 155°
2026-05-08 20:06 19.47478 37.19185 36909 ft 472 kts 155°
2026-05-08 20:06 19.41942 37.22920 36906 ft 470 kts 156°
2026-05-08 20:07 19.36122 37.25912 36904 ft 462 kts 163°
2026-05-08 20:07 19.30231 37.28537 36904 ft 461 kts 165°
2026-05-08 20:08 19.24249 37.31123 36907 ft 462 kts 165°
2026-05-08 20:08 19.18326 37.33687 36900 ft 462 kts 165°
2026-05-08 20:09 19.12368 37.36279 36898 ft 463 kts 165°
2026-05-08 20:09 19.06409 37.38876 36897 ft 463 kts 165°
2026-05-08 20:10 19.00460 37.41468 36905 ft 463 kts 165°
2026-05-08 20:10 18.94496 37.44063 36895 ft 464 kts 165°
2026-05-08 20:11 18.88550 37.46646 36897 ft 465 kts 165°
2026-05-08 20:11 18.82549 37.49254 36897 ft 466 kts 165°
2026-05-08 20:12 18.76560 37.51854 36897 ft 466 kts 165°
2026-05-08 20:12 18.70595 37.54441 36898 ft 466 kts 165°
2026-05-08 20:13 18.64593 37.57043 36897 ft 465 kts 165°
2026-05-08 20:13 18.58597 37.59640 36894 ft 465 kts 165°
2026-05-08 20:14 18.52645 37.62215 36892 ft 465 kts 165°
2026-05-08 20:14 18.46643 37.64811 36892 ft 465 kts 165°
2026-05-08 20:15 18.40651 37.67399 36897 ft 465 kts 165°
2026-05-08 20:15 18.34660 37.69986 36897 ft 465 kts 165°
2026-05-08 20:16 18.28720 37.72549 36897 ft 464 kts 165°
2026-05-08 20:16 18.22726 37.75133 36898 ft 464 kts 165°
2026-05-08 20:17 18.16735 37.77713 36900 ft 464 kts 165°
2026-05-08 20:17 18.10780 37.80273 36903 ft 464 kts 165°
2026-05-08 20:18 18.05751 37.82323 36907 ft 463 kts 166°
2026-05-08 20:18 17.99715 37.84696 36909 ft 463 kts 166°
2026-05-08 20:19 17.93679 37.87063 36913 ft 463 kts 166°
2026-05-08 20:19 17.87682 37.89426 36914 ft 463 kts 166°
2026-05-08 20:20 17.81649 37.91811 36923 ft 463 kts 166°
2026-05-08 20:20 17.75619 37.94193 36925 ft 463 kts 165°
2026-05-08 20:21 17.69574 37.96584 36924 ft 463 kts 165°
2026-05-08 20:21 17.63594 37.98942 36920 ft 460 kts 166°
2026-05-08 20:22 17.57586 38.01307 36938 ft 461 kts 166°
2026-05-08 20:22 17.51612 38.03658 36937 ft 462 kts 166°
2026-05-08 20:23 17.45573 38.06035 36929 ft 463 kts 165°
2026-05-08 20:23 17.39554 38.08406 36930 ft 461 kts 165°
2026-05-08 20:24 17.33526 38.10775 36935 ft 463 kts 165°
2026-05-08 20:24 17.27482 38.13149 36947 ft 463 kts 165°
2026-05-08 20:25 17.21490 38.15501 36943 ft 463 kts 165°
2026-05-08 20:25 17.15452 38.17870 36947 ft 463 kts 165°
2026-05-08 20:26 17.09414 38.20236 36930 ft 463 kts 165°
2026-05-08 20:26 17.03359 38.22608 36940 ft 464 kts 165°
2026-05-08 20:27 16.97342 38.24963 36941 ft 464 kts 165°
2026-05-08 20:27 16.91279 38.27335 36941 ft 464 kts 165°
2026-05-08 20:28 16.85217 38.29702 36925 ft 465 kts 164°
2026-05-08 20:28 16.79138 38.32065 36959 ft 468 kts 164°
2026-05-08 20:29 16.73032 38.34437 36955 ft 467 kts 164°
2026-05-08 20:29 16.66970 38.36785 36958 ft 468 kts 164°
2026-05-08 20:30 16.60862 38.39149 36954 ft 467 kts 165°
2026-05-08 20:30 16.54773 38.41507 36955 ft 464 kts 164°
2026-05-08 20:31 16.48762 38.43839 36967 ft 460 kts 164°
2026-05-08 20:31 16.42750 38.46167 36963 ft 460 kts 164°
2026-05-08 20:32 16.36745 38.48483 36960 ft 460 kts 164°
2026-05-08 20:32 16.30777 38.50783 36964 ft 460 kts 164°
2026-05-08 20:33 16.24764 38.53100 36971 ft 460 kts 164°
2026-05-08 20:33 16.18746 38.55422 36962 ft 461 kts 163°
2026-05-08 20:34 16.12731 38.57742 36982 ft 461 kts 164°
2026-05-08 20:35 16.03746 38.61204 36977 ft 460 kts 164°
2026-05-08 20:35 15.97740 38.63515 36974 ft 460 kts 163°
2026-05-08 20:36 15.91720 38.65829 36979 ft 461 kts 163°
2026-05-08 20:36 15.85692 38.68145 36981 ft 462 kts 163°
2026-05-08 20:37 15.79681 38.70454 36974 ft 462 kts 163°
2026-05-08 20:37 15.73638 38.72773 36977 ft 462 kts 163°
2026-05-08 20:38 15.67591 38.75092 36983 ft 463 kts 163°
2026-05-08 20:38 15.61527 38.77418 36994 ft 464 kts 163°
2026-05-08 20:39 15.55506 38.79724 37005 ft 464 kts 163°
2026-05-08 20:39 15.49443 38.82046 37004 ft 464 kts 163°
2026-05-08 20:40 15.43372 38.84369 37005 ft 464 kts 163°
2026-05-08 20:40 15.37346 38.86672 36999 ft 464 kts 163°
2026-05-08 20:41 15.31288 38.88987 37022 ft 464 kts 163°
2026-05-08 20:41 15.25359 38.91758 37021 ft 468 kts 157°
2026-05-08 20:42 15.19595 38.94827 37033 ft 468 kts 156°
2026-05-08 20:42 15.13818 38.97973 37033 ft 468 kts 156°
2026-05-08 20:43 15.08048 39.01114 37036 ft 468 kts 156°
2026-05-08 20:43 15.02254 39.04252 37034 ft 470 kts 156°
2026-05-08 20:44 14.96482 39.07372 37033 ft 471 kts 156°
2026-05-08 20:44 14.90672 39.10511 37031 ft 471 kts 156°
2026-05-08 20:45 14.84854 39.13651 37033 ft 471 kts 156°
2026-05-08 20:45 14.79028 39.16794 37037 ft 473 kts 156°
2026-05-08 20:46 14.73190 39.19943 37030 ft 474 kts 156°
2026-05-08 20:46 14.67371 39.23078 37047 ft 475 kts 156°
2026-05-08 20:47 14.61512 39.26233 37042 ft 475 kts 156°
2026-05-08 20:47 14.55650 39.29389 37049 ft 475 kts 156°
2026-05-08 20:48 14.49786 39.32543 37054 ft 475 kts 156°
2026-05-08 20:48 14.43950 39.35680 37049 ft 475 kts 156°
2026-05-08 20:49 14.38077 39.38835 37058 ft 477 kts 156°
2026-05-08 20:49 14.32185 39.41998 37058 ft 477 kts 156°
2026-05-08 20:50 14.26297 39.45157 37075 ft 476 kts 156°
2026-05-08 20:50 14.20402 39.48319 37087 ft 477 kts 156°
2026-05-08 20:51 14.14554 39.51452 37064 ft 477 kts 156°
2026-05-08 20:51 14.08657 39.54611 37065 ft 477 kts 156°
2026-05-08 20:52 14.02759 39.57768 37070 ft 477 kts 156°
2026-05-08 20:52 13.96897 39.60904 37053 ft 477 kts 156°
2026-05-08 20:53 13.90999 39.64059 37074 ft 477 kts 156°
2026-05-08 20:53 13.85104 39.67210 37037 ft 477 kts 156°
2026-05-08 20:54 13.79199 39.70363 37027 ft 478 kts 156°
2026-05-08 20:54 13.73286 39.73517 37045 ft 478 kts 156°
2026-05-08 20:55 13.67384 39.76665 37017 ft 478 kts 156°
2026-05-08 20:55 13.61504 39.79801 37020 ft 477 kts 156°
2026-05-08 20:56 13.55606 39.82944 37013 ft 477 kts 156°
2026-05-08 20:56 13.49696 39.86091 36984 ft 478 kts 155°
2026-05-08 20:57 13.43816 39.89221 36985 ft 478 kts 155°
2026-05-08 20:57 13.37916 39.92359 36986 ft 478 kts 155°
2026-05-08 20:58 13.31997 39.95505 36966 ft 478 kts 155°
2026-05-08 20:58 13.26090 39.98644 36963 ft 478 kts 155°
2026-05-08 20:59 13.20218 40.01763 36964 ft 478 kts 155°
2026-05-08 20:59 13.14317 40.04895 36939 ft 477 kts 155°
2026-05-08 21:00 13.08420 40.08024 36941 ft 476 kts 155°
2026-05-08 21:00 13.02555 40.11134 36949 ft 476 kts 155°
2026-05-08 21:01 12.96675 40.14250 36932 ft 476 kts 155°
2026-05-08 21:01 12.90784 40.17370 36922 ft 476 kts 155°
2026-05-08 21:02 12.84889 40.20490 36927 ft 476 kts 155°
2026-05-08 21:02 12.79998 40.23078 36914 ft 476 kts 155°
2026-05-08 21:03 12.73145 40.26702 36908 ft 476 kts 155°
2026-05-08 21:03 12.68254 40.29287 36907 ft 475 kts 155°
2026-05-08 21:04 12.62371 40.32395 36897 ft 475 kts 155°
2026-05-08 21:04 12.56495 40.35497 36894 ft 475 kts 155°
2026-05-08 21:05 12.50606 40.38605 36896 ft 476 kts 155°
2026-05-08 21:05 12.44752 40.41688 36899 ft 475 kts 156°
2026-05-08 21:05 12.41805 40.43217 37038 ft 475 kts 156°
2026-05-08 21:06 12.38844 40.44740 37109 ft 476 kts 156°
2026-05-08 21:06 12.32889 40.47794 37103 ft 475 kts 156°
2026-05-08 21:07 12.27012 40.50810 37097 ft 475 kts 156°
2026-05-08 21:07 12.21095 40.53848 37098 ft 476 kts 156°
2026-05-08 21:08 12.15162 40.56896 37146 ft 476 kts 156°
2026-05-08 21:08 12.12204 40.58415 37305 ft 476 kts 156°
2026-05-08 21:08 12.09242 40.59936 37503 ft 476 kts 156°
2026-05-08 21:08 12.06319 40.61436 37674 ft 475 kts 156°
2026-05-08 21:09 12.03364 40.62952 37858 ft 475 kts 156°
2026-05-08 21:09 12.00413 40.64467 38011 ft 475 kts 156°
2026-05-08 21:09 11.97448 40.65987 38098 ft 476 kts 155°
2026-05-08 21:10 11.91493 40.69038 38275 ft 479 kts 155°
2026-05-08 21:10 11.88520 40.70562 38439 ft 478 kts 155°
2026-05-08 21:10 11.85547 40.72085 38616 ft 478 kts 155°
2026-05-08 21:10 11.82578 40.73606 38749 ft 477 kts 155°
2026-05-08 21:11 11.79607 40.75128 38859 ft 477 kts 155°
2026-05-08 21:11 11.73694 40.78154 38890 ft 478 kts 155°
2026-05-08 21:12 11.67753 40.81194 38886 ft 477 kts 155°
2026-05-08 21:12 11.61822 40.84227 38893 ft 477 kts 155°
2026-05-08 21:13 11.55923 40.87242 38892 ft 476 kts 155°
2026-05-08 21:13 11.49987 40.90275 38878 ft 476 kts 155°
2026-05-08 21:14 11.44060 40.93301 38874 ft 475 kts 155°
2026-05-08 21:14 11.38138 40.96324 38882 ft 474 kts 155°
2026-05-08 21:15 11.32280 40.99312 38877 ft 474 kts 155°
2026-05-08 21:15 11.26378 41.02322 38875 ft 474 kts 155°
2026-05-08 21:16 11.20476 41.05330 38877 ft 474 kts 155°
2026-05-08 21:16 11.14570 41.08338 38868 ft 474 kts 155°
2026-05-08 21:17 11.08675 41.11341 38871 ft 474 kts 155°
2026-05-08 21:17 11.02809 41.14326 38866 ft 473 kts 155°
2026-05-08 21:18 10.96917 41.17324 38873 ft 472 kts 155°
2026-05-08 21:18 10.91030 41.20318 38866 ft 472 kts 155°
2026-05-08 21:19 10.85151 41.23306 38870 ft 472 kts 155°
2026-05-08 21:19 10.79290 41.26284 38871 ft 472 kts 155°
2026-05-08 21:20 10.73397 41.29276 38870 ft 474 kts 155°
2026-05-08 21:20 10.67491 41.32275 38871 ft 474 kts 155°
2026-05-08 21:21 10.61581 41.35273 38876 ft 474 kts 155°
2026-05-08 21:21 10.55714 41.38249 38878 ft 474 kts 155°
2026-05-08 21:22 10.49800 41.41247 38879 ft 474 kts 155°
2026-05-08 21:22 10.43895 41.44240 38884 ft 474 kts 155°
2026-05-08 21:23 10.37995 41.47228 38884 ft 475 kts 155°
2026-05-08 21:23 10.32109 41.50209 38887 ft 475 kts 155°
2026-05-08 21:24 10.26219 41.53190 38884 ft 475 kts 155°
2026-05-08 21:24 10.20304 41.56183 38884 ft 475 kts 155°
2026-05-08 21:25 10.14386 41.59175 38881 ft 475 kts 154°
2026-05-08 21:25 10.08464 41.62169 38872 ft 474 kts 154°
2026-05-08 21:26 10.02545 41.65159 38887 ft 474 kts 154°
2026-05-08 21:26 9.96668 41.68128 38886 ft 474 kts 154°
2026-05-08 21:27 9.90759 41.71111 38895 ft 474 kts 154°
2026-05-08 21:27 9.84834 41.74101 38893 ft 475 kts 154°
2026-05-08 21:28 9.78938 41.77075 38920 ft 475 kts 154°
2026-05-08 21:28 9.73012 41.80064 38921 ft 475 kts 154°
2026-05-08 21:29 9.67080 41.83054 38959 ft 475 kts 154°
2026-05-08 21:29 9.61165 41.85948 38954 ft 475 kts 156°
2026-05-08 21:30 9.55136 41.88713 39002 ft 474 kts 157°
2026-05-08 21:30 9.49108 41.91448 39002 ft 475 kts 156°
2026-05-08 21:31 9.43085 41.94196 39018 ft 474 kts 156°
2026-05-08 21:31 9.37069 41.96954 39029 ft 474 kts 156°
2026-05-08 21:32 9.31081 41.99701 39033 ft 474 kts 156°
2026-05-08 21:32 9.25071 42.02453 39040 ft 474 kts 156°
2026-05-08 21:33 9.19045 42.05213 39037 ft 475 kts 156°
2026-05-08 21:33 9.13027 42.07971 39032 ft 475 kts 156°
2026-05-08 21:34 9.07004 42.10730 39025 ft 475 kts 156°
2026-05-08 21:34 9.00982 42.13488 39017 ft 475 kts 156°
2026-05-08 21:35 8.94964 42.16243 39009 ft 475 kts 156°
2026-05-08 21:35 8.88972 42.18986 39013 ft 475 kts 156°
2026-05-08 21:36 8.82949 42.21741 39006 ft 474 kts 156°
2026-05-08 21:36 8.76929 42.24494 39001 ft 474 kts 156°
2026-05-08 21:37 8.70919 42.27242 38995 ft 474 kts 156°
2026-05-08 21:37 8.64944 42.29972 38994 ft 474 kts 156°
2026-05-08 21:38 8.58936 42.32717 38988 ft 474 kts 156°
2026-05-08 21:38 8.52925 42.35461 38991 ft 474 kts 156°
2026-05-08 21:39 8.46916 42.38205 38988 ft 474 kts 156°
2026-05-08 21:39 8.40911 42.40946 38976 ft 474 kts 156°
2026-05-08 21:40 8.34898 42.43694 38979 ft 474 kts 156°
2026-05-08 21:40 8.28919 42.46428 38977 ft 474 kts 156°
2026-05-08 21:41 8.19897 42.50551 38982 ft 474 kts 156°
2026-05-08 21:41 8.13878 42.53304 38974 ft 474 kts 156°
2026-05-08 21:42 8.07901 42.56036 38975 ft 474 kts 156°
2026-05-08 21:42 8.01892 42.58783 38971 ft 474 kts 156°
2026-05-08 21:43 7.95872 42.61533 38963 ft 474 kts 156°
2026-05-08 21:43 7.89874 42.64273 38949 ft 473 kts 156°
2026-05-08 21:44 7.83919 42.66992 38958 ft 472 kts 156°
2026-05-08 21:44 7.77912 42.69733 38950 ft 473 kts 156°
2026-05-08 21:45 7.71903 42.72475 38952 ft 474 kts 156°
2026-05-08 21:45 7.65895 42.75216 38949 ft 474 kts 156°
2026-05-08 21:46 7.59921 42.77940 38951 ft 474 kts 156°
2026-05-08 21:46 7.53896 42.80686 38949 ft 474 kts 156°
2026-05-08 21:47 7.47885 42.83426 38947 ft 474 kts 156°
2026-05-08 21:47 7.41860 42.86170 38949 ft 475 kts 156°
2026-05-08 21:48 7.36852 42.88451 38946 ft 475 kts 156°
2026-05-08 21:48 7.29840 42.91644 38934 ft 475 kts 156°
2026-05-08 21:49 7.24831 42.93924 38944 ft 475 kts 156°
2026-05-08 21:49 7.18780 42.96678 38934 ft 475 kts 156°
2026-05-08 21:50 7.12745 42.99424 38941 ft 476 kts 156°
2026-05-08 21:50 7.06739 43.02155 38936 ft 476 kts 156°
2026-05-08 21:51 7.00704 43.04899 38927 ft 475 kts 156°
2026-05-08 21:51 6.94677 43.07641 38925 ft 475 kts 156°
2026-05-08 21:52 6.88668 43.10384 38925 ft 475 kts 156°
2026-05-08 21:52 6.82647 43.13133 38921 ft 475 kts 156°
2026-05-08 21:53 6.76662 43.15865 38916 ft 475 kts 156°
2026-05-08 21:53 6.70637 43.18614 38914 ft 475 kts 156°
2026-05-08 21:54 6.64616 43.21360 38915 ft 475 kts 156°
2026-05-08 21:54 6.58586 43.24109 38911 ft 475 kts 156°
2026-05-08 21:55 6.52577 43.26848 38903 ft 474 kts 156°
2026-05-08 21:56 6.43597 43.30940 38904 ft 474 kts 156°
2026-05-08 21:56 6.37573 43.33684 38898 ft 474 kts 156°
2026-05-08 21:57 6.31559 43.36423 38895 ft 474 kts 156°
2026-05-08 21:57 6.25589 43.39141 38894 ft 474 kts 156°
2026-05-08 21:58 6.19586 43.41873 38892 ft 474 kts 156°
2026-05-08 21:58 6.13578 43.44607 38895 ft 473 kts 156°
2026-05-08 21:59 6.07593 43.47330 38891 ft 471 kts 156°
2026-05-08 21:59 6.01642 43.50036 38895 ft 471 kts 156°
2026-05-08 22:00 5.95661 43.52756 38900 ft 471 kts 156°
2026-05-08 22:00 5.89685 43.55473 38899 ft 471 kts 156°
2026-05-08 22:01 5.83705 43.58191 38907 ft 471 kts 156°
2026-05-08 22:01 5.77725 43.60908 38906 ft 471 kts 156°
2026-05-08 22:02 5.71752 43.63621 38917 ft 471 kts 156°
2026-05-08 22:02 5.65782 43.66335 38917 ft 471 kts 156°
2026-05-08 22:03 5.59822 43.69049 38914 ft 470 kts 155°
2026-05-08 22:03 5.53896 43.71750 38917 ft 470 kts 155°
2026-05-08 22:04 5.47948 43.74460 38920 ft 470 kts 155°
2026-05-08 22:04 5.41970 43.77183 38925 ft 471 kts 155°
2026-05-08 22:05 5.35993 43.79904 38922 ft 471 kts 155°
2026-05-08 22:05 5.30013 43.82626 38922 ft 471 kts 155°
2026-05-08 22:06 5.24082 43.85325 38924 ft 470 kts 155°
2026-05-08 22:06 5.18120 43.88038 38926 ft 469 kts 155°
2026-05-08 22:07 5.12172 43.90744 38926 ft 469 kts 155°
2026-05-08 22:07 5.06211 43.93455 38920 ft 469 kts 155°
2026-05-08 22:08 5.00249 43.96166 38924 ft 470 kts 155°
2026-05-08 22:08 4.94325 43.98859 38930 ft 470 kts 155°
2026-05-08 22:09 4.88361 44.01552 38928 ft 469 kts 156°
2026-05-08 22:09 4.82387 44.04213 38931 ft 469 kts 156°
2026-05-08 22:10 4.76419 44.06866 38935 ft 468 kts 156°
2026-05-08 22:10 4.70502 44.09500 38939 ft 468 kts 156°
2026-05-08 22:11 4.64545 44.12154 38935 ft 468 kts 156°
2026-05-08 22:11 4.58591 44.14806 38933 ft 468 kts 156°
2026-05-08 22:12 4.52645 44.17455 38944 ft 468 kts 156°
2026-05-08 22:12 4.46700 44.20102 38943 ft 467 kts 156°
2026-05-08 22:13 4.40760 44.22747 38938 ft 467 kts 156°
2026-05-08 22:13 4.34847 44.25379 38943 ft 467 kts 156°
2026-05-08 22:14 4.28909 44.28022 38943 ft 467 kts 156°
2026-05-08 22:14 4.22968 44.30666 38945 ft 467 kts 156°
2026-05-08 22:15 4.17024 44.33310 38945 ft 467 kts 156°
2026-05-08 22:15 4.11084 44.35953 38944 ft 467 kts 156°
2026-05-08 22:16 4.05141 44.38596 38941 ft 468 kts 156°
2026-05-08 22:16 3.99184 44.41245 38936 ft 469 kts 156°
2026-05-08 22:17 3.93259 44.43880 38941 ft 469 kts 156°
2026-05-08 22:17 3.87283 44.46537 38941 ft 469 kts 156°
2026-05-08 22:18 3.81338 44.49179 38939 ft 469 kts 156°
2026-05-08 22:18 3.75359 44.51837 38934 ft 470 kts 156°
2026-05-08 22:19 3.69398 44.54485 38939 ft 469 kts 156°
2026-05-08 22:19 3.63424 44.57140 38932 ft 469 kts 156°
2026-05-08 22:20 3.57475 44.59783 38939 ft 467 kts 156°
2026-05-08 22:20 3.51517 44.62428 38936 ft 469 kts 156°
2026-05-08 22:21 3.45563 44.65072 38934 ft 471 kts 156°
2026-05-08 22:21 3.39552 44.67742 38932 ft 473 kts 156°
2026-05-08 22:22 3.33537 44.70413 38934 ft 473 kts 156°
2026-05-08 22:22 3.27532 44.73079 38929 ft 472 kts 156°
2026-05-08 22:23 3.21517 44.75748 38930 ft 473 kts 156°
2026-05-08 22:23 3.15522 44.78409 38926 ft 475 kts 156°
2026-05-08 22:24 3.09472 44.81094 38924 ft 476 kts 156°
2026-05-08 22:24 3.03405 44.83785 38924 ft 476 kts 156°
2026-05-08 22:25 2.97373 44.86461 38921 ft 477 kts 156°
2026-05-08 22:25 2.91305 44.89153 38921 ft 478 kts 156°
2026-05-08 22:26 2.85227 44.91849 38918 ft 477 kts 156°
2026-05-08 22:26 2.79181 44.94530 38916 ft 477 kts 156°
2026-05-08 22:27 2.73104 44.97225 38916 ft 477 kts 156°
2026-05-08 22:27 2.67024 44.99921 38914 ft 478 kts 156°
2026-05-08 22:28 2.60945 45.02616 38911 ft 477 kts 156°
2026-05-08 22:28 2.54904 45.05294 38920 ft 478 kts 156°
2026-05-08 22:29 2.48807 45.07996 38919 ft 477 kts 156°
2026-05-08 22:29 2.42742 45.10685 38917 ft 477 kts 156°
2026-05-08 22:30 2.36699 45.13362 38917 ft 477 kts 156°
2026-05-08 22:30 2.30635 45.16049 38913 ft 477 kts 156°
2026-05-08 22:31 2.24549 45.18746 38915 ft 477 kts 156°
2026-05-08 22:31 2.18468 45.21440 38916 ft 478 kts 156°
2026-05-08 22:32 2.12419 45.24119 38915 ft 479 kts 156°
2026-05-08 22:32 2.06318 45.26822 38915 ft 479 kts 156°
2026-05-08 22:33 2.00206 45.29526 38912 ft 479 kts 156°
2026-05-08 22:33 1.94081 45.32175 38906 ft 479 kts 157°
2026-05-08 22:34 1.87990 45.34783 38907 ft 479 kts 157°
2026-05-08 22:34 1.81847 45.37414 38908 ft 479 kts 157°
2026-05-08 22:35 1.75708 45.40050 38905 ft 479 kts 157°
2026-05-08 22:35 1.70618 45.42237 38906 ft 479 kts 157°
2026-05-08 22:36 1.63481 45.45303 38906 ft 479 kts 157°
2026-05-08 22:36 1.58382 45.47494 38903 ft 479 kts 157°
2026-05-08 22:37 1.52237 45.50134 38912 ft 480 kts 157°
2026-05-08 22:37 1.46102 45.52769 38904 ft 480 kts 157°
2026-05-08 22:38 1.39961 45.55406 38910 ft 480 kts 157°
2026-05-08 22:38 1.33846 45.58033 38906 ft 480 kts 157°
2026-05-08 22:39 1.27691 45.60676 38908 ft 480 kts 157°
2026-05-08 22:39 1.21554 45.63311 38898 ft 480 kts 157°
2026-05-08 22:40 1.15449 45.65933 38905 ft 480 kts 157°
2026-05-08 22:40 1.09298 45.68574 38902 ft 480 kts 157°
2026-05-08 22:41 1.03163 45.71209 38903 ft 479 kts 157°
2026-05-08 22:41 0.97030 45.73842 38907 ft 479 kts 158°
2026-05-08 22:42 0.90942 45.76456 38905 ft 479 kts 157°
2026-05-08 22:42 0.84818 45.79085 38905 ft 479 kts 158°
2026-05-08 22:43 0.78686 45.81717 38907 ft 479 kts 157°
2026-05-08 22:43 0.72551 45.84351 38907 ft 479 kts 158°
2026-05-08 22:44 0.66422 45.86982 38907 ft 479 kts 157°
2026-05-08 22:44 0.60338 45.89594 38905 ft 479 kts 158°
2026-05-08 22:45 0.54218 45.92227 38904 ft 479 kts 158°
2026-05-08 22:45 0.48106 45.94896 38907 ft 478 kts 157°
2026-05-08 22:46 0.42013 45.97570 38904 ft 478 kts 157°
2026-05-08 22:46 0.35913 46.00246 38907 ft 478 kts 158°
2026-05-08 22:47 0.29842 46.02905 38907 ft 478 kts 158°
2026-05-08 22:47 0.23737 46.05578 38907 ft 478 kts 157°
2026-05-08 22:48 0.17621 46.08255 38900 ft 478 kts 157°
2026-05-08 22:48 0.11558 46.10909 38906 ft 478 kts 157°
2026-05-08 22:49 0.05454 46.13581 38905 ft 478 kts 157°
2026-05-08 22:49 -0.03703 46.17591 38901 ft 478 kts 158°
2026-05-08 22:50 -0.09771 46.20247 38897 ft 478 kts 158°
2026-05-08 22:50 -0.15866 46.22916 38899 ft 478 kts 158°
2026-05-08 22:51 -0.21981 46.25573 38897 ft 478 kts 158°
2026-05-08 22:51 -0.28095 46.28180 38904 ft 478 kts 158°
2026-05-08 22:52 -0.34218 46.30783 38904 ft 478 kts 158°
2026-05-08 22:52 -0.40306 46.33375 38904 ft 478 kts 158°
2026-05-08 22:53 -0.46415 46.35980 38902 ft 477 kts 158°
2026-05-08 22:53 -0.52534 46.38591 38900 ft 477 kts 158°
2026-05-08 22:54 -0.58644 46.41197 38905 ft 477 kts 158°
2026-05-08 22:54 -0.64753 46.43803 38900 ft 478 kts 158°
2026-05-08 22:55 -0.70841 46.46400 38893 ft 478 kts 158°
2026-05-08 22:55 -0.76961 46.49011 38897 ft 478 kts 158°
2026-05-08 22:56 -0.83091 46.51626 38898 ft 478 kts 158°
2026-05-08 22:56 -0.89215 46.54239 38898 ft 479 kts 158°
2026-05-08 22:57 -0.95319 46.56843 38901 ft 479 kts 158°
2026-05-08 22:57 -1.01468 46.59467 38894 ft 479 kts 158°
2026-05-08 22:58 -1.07604 46.62085 38898 ft 479 kts 158°
2026-05-08 22:58 -1.13747 46.64707 38893 ft 479 kts 158°
2026-05-08 22:59 -1.19845 46.67308 38893 ft 479 kts 158°
2026-05-08 22:59 -1.25985 46.69929 38892 ft 479 kts 158°
2026-05-08 23:00 -1.32134 46.72553 38901 ft 479 kts 158°
2026-05-08 23:00 -1.38275 46.75173 38898 ft 479 kts 158°
2026-05-08 23:01 -1.44379 46.77779 38901 ft 479 kts 158°
2026-05-08 23:01 -1.50518 46.80399 38900 ft 479 kts 158°
2026-05-08 23:02 -1.56664 46.83023 38894 ft 479 kts 158°
2026-05-08 23:02 -1.62767 46.85628 38894 ft 479 kts 158°
2026-05-08 23:03 -1.68908 46.88250 38900 ft 479 kts 158°
2026-05-08 23:03 -1.75052 46.90873 38900 ft 479 kts 158°
2026-05-08 23:04 -1.81191 46.93494 38896 ft 479 kts 158°
2026-05-08 23:04 -1.87341 46.96120 38886 ft 479 kts 158°
2026-05-08 23:05 -1.93427 46.98720 38902 ft 479 kts 158°
2026-05-08 23:05 -1.99562 47.01340 38903 ft 478 kts 158°
2026-05-08 23:06 -2.05680 47.03953 38901 ft 478 kts 158°
2026-05-08 23:06 -2.11806 47.06569 38899 ft 478 kts 158°
2026-05-08 23:07 -2.17927 47.09184 38893 ft 478 kts 158°
2026-05-08 23:07 -2.24011 47.11784 38898 ft 478 kts 158°
2026-05-08 23:08 -2.30122 47.14394 38900 ft 478 kts 158°
2026-05-08 23:08 -2.36244 47.17010 38893 ft 478 kts 158°
2026-05-08 23:09 -2.42368 47.19627 38896 ft 478 kts 158°
2026-05-08 23:09 -2.48488 47.22243 38890 ft 478 kts 158°
2026-05-08 23:10 -2.54596 47.24854 38892 ft 477 kts 158°
2026-05-08 23:10 -2.60705 47.27465 38896 ft 477 kts 157°
2026-05-08 23:11 -2.66816 47.30077 38901 ft 478 kts 158°
2026-05-08 23:11 -2.72897 47.32677 38894 ft 478 kts 158°
2026-05-08 23:12 -2.79017 47.35295 38894 ft 478 kts 157°
2026-05-08 23:12 -2.85134 47.37911 38886 ft 478 kts 158°
2026-05-08 23:13 -2.91257 47.40530 38888 ft 478 kts 158°
2026-05-08 23:13 -2.97375 47.43147 38897 ft 478 kts 157°
2026-05-08 23:14 -3.03500 47.45768 38894 ft 478 kts 158°
2026-05-08 23:14 -3.09622 47.48387 38899 ft 478 kts 158°
2026-05-08 23:15 -3.15705 47.50990 38901 ft 478 kts 158°
2026-05-08 23:15 -3.21837 47.53614 38903 ft 479 kts 158°
2026-05-08 23:16 -3.27977 47.56242 38905 ft 479 kts 158°
2026-05-08 23:16 -3.34108 47.58867 38902 ft 479 kts 158°
2026-05-08 23:17 -3.40204 47.61477 38898 ft 479 kts 158°
2026-05-08 23:17 -3.46334 47.64101 38894 ft 479 kts 157°
2026-05-08 23:18 -3.52471 47.66730 38894 ft 480 kts 157°
2026-05-08 23:18 -3.58610 47.69359 38899 ft 480 kts 158°
2026-05-08 23:19 -3.64712 47.71973 38891 ft 479 kts 158°
2026-05-08 23:19 -3.70859 47.74607 38901 ft 480 kts 157°
2026-05-08 23:20 -3.77005 47.77241 38892 ft 480 kts 158°
2026-05-08 23:20 -3.83153 47.79875 38891 ft 480 kts 157°
2026-05-08 23:21 -3.89269 47.82497 38892 ft 480 kts 157°
2026-05-08 23:21 -3.95435 47.85141 38897 ft 480 kts 158°
2026-05-08 23:22 -4.01562 47.87768 38898 ft 481 kts 157°
2026-05-08 23:22 -4.07712 47.90405 38903 ft 481 kts 157°
2026-05-08 23:23 -4.12827 47.92599 38900 ft 481 kts 157°
2026-05-08 23:23 -4.19990 47.95673 38902 ft 481 kts 157°
2026-05-08 23:24 -4.25100 47.97863 38897 ft 481 kts 157°
2026-05-08 23:24 -4.31254 48.00499 38896 ft 481 kts 157°
2026-05-08 23:25 -4.37423 48.03140 38889 ft 481 kts 157°
2026-05-08 23:25 -4.43599 48.05786 38905 ft 481 kts 157°
2026-05-08 23:26 -4.49766 48.08429 38894 ft 482 kts 157°
2026-05-08 23:26 -4.55886 48.11052 38907 ft 482 kts 157°
2026-05-08 23:27 -4.62066 48.13701 38893 ft 482 kts 157°
2026-05-08 23:27 -4.68229 48.16344 38901 ft 482 kts 157°
2026-05-08 23:28 -4.74403 48.18992 38898 ft 482 kts 157°
2026-05-08 23:28 -4.80539 48.21623 38903 ft 482 kts 157°
2026-05-08 23:29 -4.86724 48.24277 38902 ft 482 kts 157°
2026-05-08 23:29 -4.92896 48.26925 38904 ft 482 kts 156°
2026-05-08 23:30 -4.99061 48.29571 38909 ft 482 kts 156°
2026-05-08 23:30 -5.05205 48.32208 38902 ft 483 kts 156°
2026-05-08 23:31 -5.11389 48.34864 38910 ft 482 kts 156°
2026-05-08 23:31 -5.17564 48.37516 38901 ft 483 kts 156°
2026-05-08 23:32 -5.23746 48.40171 38906 ft 483 kts 156°
2026-05-08 23:32 -5.29931 48.42829 38906 ft 484 kts 156°
2026-05-08 23:33 -5.36127 48.45491 38904 ft 483 kts 156°
2026-05-08 23:33 -5.42268 48.48131 38901 ft 483 kts 156°
2026-05-08 23:34 -5.48442 48.50785 38909 ft 483 kts 156°
2026-05-08 23:34 -5.54622 48.53443 38905 ft 483 kts 156°
2026-05-08 23:35 -5.60809 48.56104 38891 ft 483 kts 156°
2026-05-08 23:35 -5.66986 48.58761 38900 ft 483 kts 156°
2026-05-08 23:36 -5.73172 48.61423 38903 ft 483 kts 156°
2026-05-08 23:36 -5.79365 48.64089 38906 ft 485 kts 156°
2026-05-08 23:37 -5.85580 48.66764 38905 ft 484 kts 156°
2026-05-08 23:37 -5.91723 48.69410 38901 ft 483 kts 156°
2026-05-08 23:38 -5.97891 48.72066 38904 ft 483 kts 156°
2026-05-08 23:38 -6.04086 48.74736 38896 ft 485 kts 156°
2026-05-08 23:39 -6.10302 48.77415 38908 ft 486 kts 156°
2026-05-08 23:39 -6.16507 48.80089 38901 ft 486 kts 156°
2026-05-08 23:40 -6.22719 48.82768 38897 ft 486 kts 156°
2026-05-08 23:40 -6.28933 48.85447 38898 ft 486 kts 156°
2026-05-08 23:41 -6.35162 48.88134 38896 ft 487 kts 156°
2026-05-08 23:41 -6.41362 48.90810 38901 ft 487 kts 156°
2026-05-08 23:42 -6.47598 48.93501 38901 ft 487 kts 156°
2026-05-08 23:42 -6.53840 48.96196 38899 ft 488 kts 156°
2026-05-08 23:43 -6.60067 48.98885 38903 ft 488 kts 156°
2026-05-08 23:43 -6.66324 49.01588 38901 ft 489 kts 156°
2026-05-08 23:44 -6.72587 49.04294 38906 ft 490 kts 156°
2026-05-08 23:44 -6.78824 49.06990 38898 ft 492 kts 156°
2026-05-08 23:45 -6.85112 49.09708 38895 ft 491 kts 156°
2026-05-08 23:45 -6.91379 49.12419 38898 ft 489 kts 156°
2026-05-08 23:46 -6.97660 49.15136 38904 ft 491 kts 156°
2026-05-08 23:46 -7.03949 49.17857 38905 ft 493 kts 156°
2026-05-08 23:47 -7.10254 49.20586 38897 ft 492 kts 156°
2026-05-08 23:47 -7.16496 49.23288 38891 ft 490 kts 156°
2026-05-08 23:48 -7.22776 49.26007 38902 ft 491 kts 156°
2026-05-08 23:48 -7.29071 49.28734 38902 ft 493 kts 156°
2026-05-08 23:49 -7.35374 49.31466 38908 ft 492 kts 156°
2026-05-08 23:49 -7.41662 49.34191 38898 ft 491 kts 156°
2026-05-08 23:50 -7.47939 49.36913 38897 ft 492 kts 156°
2026-05-08 23:50 -7.54220 49.39637 38903 ft 493 kts 156°
2026-05-08 23:51 -7.60512 49.42367 38895 ft 491 kts 156°
2026-05-08 23:51 -7.66798 49.45095 38907 ft 491 kts 156°
2026-05-08 23:52 -7.73071 49.47818 38893 ft 492 kts 156°
2026-05-08 23:52 -7.79375 49.50556 38897 ft 492 kts 156°
2026-05-08 23:53 -7.85654 49.53283 38901 ft 489 kts 156°
2026-05-08 23:53 -7.91863 49.55982 38906 ft 490 kts 156°
2026-05-08 23:54 -7.98130 49.58706 38902 ft 491 kts 156°
2026-05-08 23:55 -8.07549 49.62802 38898 ft 490 kts 156°
2026-05-08 23:55 -8.13810 49.65526 38906 ft 488 kts 156°
2026-05-08 23:56 -8.20002 49.68221 38899 ft 488 kts 156°
2026-05-08 23:56 -8.26239 49.70936 38898 ft 487 kts 156°
2026-05-08 23:57 -8.32462 49.73647 38905 ft 487 kts 156°
2026-05-08 23:57 -8.38667 49.76350 38895 ft 487 kts 156°
2026-05-08 23:58 -8.44919 49.79075 38905 ft 490 kts 156°
2026-05-08 23:58 -8.51174 49.81802 38898 ft 489 kts 156°
2026-05-08 23:59 -8.57416 49.84524 38907 ft 488 kts 156°
2026-05-08 23:59 -8.63659 49.87248 38900 ft 488 kts 156°
2026-05-09 00:00 -8.69877 49.89962 38907 ft 489 kts 156°
2026-05-09 00:00 -8.76114 49.92685 38900 ft 487 kts 156°
2026-05-09 00:01 -8.82330 49.95400 38899 ft 486 kts 156°
2026-05-09 00:01 -8.88548 49.98117 38900 ft 487 kts 156°
2026-05-09 00:02 -8.94780 50.00841 38903 ft 488 kts 156°
2026-05-09 00:02 -9.01019 50.03569 38910 ft 487 kts 156°
2026-05-09 00:03 -9.07239 50.06289 38912 ft 486 kts 156°
2026-05-09 00:03 -9.13416 50.08992 38912 ft 487 kts 156°
2026-05-09 00:04 -9.19628 50.11712 38905 ft 486 kts 156°
2026-05-09 00:04 -9.25830 50.14428 38909 ft 485 kts 156°
2026-05-09 00:05 -9.32041 50.17149 38913 ft 486 kts 156°
2026-05-09 00:05 -9.38208 50.19851 38909 ft 485 kts 156°
2026-05-09 00:06 -9.44416 50.22573 38901 ft 485 kts 156°
2026-05-09 00:06 -9.50612 50.25290 38916 ft 485 kts 156°
2026-05-09 00:07 -9.56772 50.27993 38912 ft 486 kts 156°
2026-05-09 00:07 -9.62970 50.30714 38910 ft 485 kts 156°
2026-05-09 00:08 -9.69178 50.33440 38912 ft 485 kts 156°
2026-05-09 00:08 -9.74323 50.35700 38913 ft 485 kts 156°
2026-05-09 00:09 -9.80523 50.38425 38919 ft 486 kts 156°
2026-05-09 00:09 -9.87733 50.41595 38912 ft 485 kts 156°
2026-05-09 00:10 -9.92919 50.43876 38919 ft 485 kts 156°
2026-05-09 00:10 -9.99111 50.46600 38914 ft 485 kts 156°
2026-05-09 00:11 -10.05273 50.49311 38920 ft 485 kts 156°
2026-05-09 00:11 -10.11480 50.52042 38918 ft 485 kts 156°
2026-05-09 00:12 -10.17670 50.54767 38923 ft 485 kts 156°
2026-05-09 00:12 -10.23873 50.57499 38921 ft 485 kts 156°
2026-05-09 00:13 -10.30055 50.60222 38923 ft 483 kts 156°
2026-05-09 00:13 -10.36177 50.62920 38926 ft 483 kts 156°
2026-05-09 00:14 -10.42376 50.65654 38915 ft 483 kts 156°
2026-05-09 00:14 -10.48524 50.68367 38925 ft 484 kts 156°
2026-05-09 00:15 -10.54713 50.71098 38932 ft 483 kts 156°
2026-05-09 00:15 -10.60885 50.73823 38924 ft 481 kts 156°
2026-05-09 00:16 -10.66992 50.76521 38923 ft 481 kts 156°
2026-05-09 00:16 -10.73139 50.79237 38932 ft 481 kts 156°
2026-05-09 00:17 -10.79251 50.81940 38929 ft 481 kts 156°
2026-05-09 00:17 -10.85400 50.84659 38935 ft 481 kts 156°
2026-05-09 00:18 -10.91537 50.87375 38940 ft 480 kts 156°
2026-05-09 00:18 -10.97674 50.90093 38937 ft 481 kts 156°
2026-05-09 00:19 -11.03809 50.92810 38932 ft 481 kts 156°
2026-05-09 00:19 -11.09934 50.95524 38930 ft 482 kts 156°
2026-05-09 00:20 -11.16082 50.98249 38939 ft 481 kts 156°
2026-05-09 00:20 -11.22226 51.00974 38943 ft 480 kts 156°
2026-05-09 00:21 -11.28347 51.03690 38940 ft 480 kts 156°
2026-05-09 00:21 -11.34435 51.06394 38937 ft 480 kts 156°
2026-05-09 00:22 -11.40562 51.09115 38938 ft 480 kts 156°
2026-05-09 00:22 -11.46704 51.11844 38941 ft 480 kts 156°
2026-05-09 00:23 -11.52823 51.14565 38939 ft 480 kts 156°
2026-05-09 00:23 -11.58950 51.17290 38944 ft 480 kts 156°
2026-05-09 00:24 -11.65039 51.20000 38949 ft 480 kts 156°
2026-05-09 00:24 -11.71164 51.22727 38939 ft 480 kts 156°
2026-05-09 00:25 -11.77287 51.25454 38939 ft 479 kts 156°
2026-05-09 00:25 -11.83397 51.28177 38942 ft 479 kts 156°
2026-05-09 00:26 -11.89511 51.30903 38934 ft 478 kts 156°
2026-05-09 00:26 -11.95568 51.33605 38950 ft 478 kts 156°
2026-05-09 00:27 -12.01677 51.36332 38955 ft 479 kts 156°
2026-05-09 00:27 -12.07798 51.39065 38951 ft 479 kts 156°
2026-05-09 00:28 -12.13906 51.41794 38953 ft 478 kts 156°
2026-05-09 00:28 -12.20008 51.44522 38948 ft 478 kts 156°
2026-05-09 00:29 -12.26077 51.47236 38957 ft 479 kts 156°
2026-05-09 00:29 -12.32192 51.49973 38952 ft 478 kts 156°
2026-05-09 00:30 -12.38294 51.52705 38965 ft 478 kts 156°
2026-05-09 00:30 -12.44391 51.55437 38961 ft 479 kts 156°
2026-05-09 00:31 -12.50468 51.58161 38967 ft 479 kts 156°
2026-05-09 00:31 -12.56578 51.60901 38959 ft 479 kts 156°
2026-05-09 00:32 -12.62695 51.63646 38954 ft 479 kts 156°
2026-05-09 00:32 -12.68777 51.66377 38962 ft 479 kts 157°
2026-05-09 00:33 -12.74898 51.69126 38966 ft 480 kts 157°
2026-05-09 00:33 -12.81019 51.71877 38959 ft 480 kts 157°
2026-05-09 00:34 -12.87137 51.74627 38968 ft 480 kts 156°
2026-05-09 00:34 -12.93259 51.77382 38959 ft 480 kts 157°
2026-05-09 00:35 -12.99372 51.80133 38974 ft 480 kts 157°
2026-05-09 00:35 -13.05489 51.82889 38976 ft 480 kts 157°
2026-05-09 00:36 -13.11570 51.85629 38969 ft 480 kts 158°
2026-05-09 00:36 -13.17702 51.88394 38976 ft 480 kts 158°
2026-05-09 00:37 -13.23787 51.91138 38977 ft 480 kts 158°
2026-05-09 00:37 -13.29904 51.93900 38979 ft 480 kts 158°
2026-05-09 00:38 -13.36020 51.96662 38983 ft 480 kts 158°
2026-05-09 00:38 -13.42138 51.99426 38977 ft 480 kts 157°
2026-05-09 00:39 -13.48248 52.02189 38978 ft 480 kts 157°
2026-05-09 00:39 -13.54362 52.04955 38977 ft 479 kts 157°
2026-05-09 00:40 -13.60469 52.07718 38986 ft 479 kts 158°
2026-05-09 00:40 -13.66545 52.10470 38979 ft 479 kts 158°
2026-05-09 00:41 -13.75693 52.14616 38979 ft 479 kts 157°
2026-05-09 00:41 -13.81807 52.17388 38978 ft 479 kts 158°
2026-05-09 00:42 -13.87916 52.20160 38981 ft 480 kts 158°
2026-05-09 00:42 -13.94020 52.22933 38987 ft 479 kts 158°
2026-05-09 00:43 -14.00115 52.25701 38981 ft 479 kts 157°
2026-05-09 00:43 -14.06217 52.28475 38984 ft 479 kts 159°
2026-05-09 00:44 -14.12316 52.31249 38980 ft 479 kts 159°
2026-05-09 00:44 -14.18375 52.34006 38986 ft 479 kts 158°
2026-05-09 00:45 -14.24490 52.36791 38985 ft 479 kts 158°
2026-05-09 00:45 -14.30589 52.39570 38983 ft 479 kts 159°
2026-05-09 00:46 -14.36694 52.42352 38994 ft 479 kts 158°
2026-05-09 00:46 -14.42756 52.45118 38996 ft 479 kts 158°
2026-05-09 00:47 -14.48864 52.47906 38995 ft 479 kts 159°
2026-05-09 00:47 -14.54965 52.50692 38997 ft 479 kts 158°
2026-05-09 00:48 -14.61071 52.53482 38998 ft 479 kts 159°
2026-05-09 00:48 -14.67171 52.56273 38996 ft 479 kts 159°
2026-05-09 00:49 -14.73279 52.59067 38993 ft 479 kts 159°
2026-05-09 00:49 -14.79353 52.61848 38995 ft 480 kts 159°
2026-05-09 00:50 -14.85457 52.64644 38998 ft 479 kts 159°
2026-05-09 00:50 -14.91560 52.67442 38998 ft 479 kts 159°
2026-05-09 00:51 -14.97683 52.70250 38994 ft 480 kts 159°
2026-05-09 00:51 -15.03749 52.73035 39001 ft 480 kts 159°
2026-05-09 00:52 -15.09849 52.75837 39005 ft 479 kts 159°
2026-05-09 00:52 -15.14965 52.78187 39003 ft 480 kts 158°
2026-05-09 00:53 -15.21032 52.80977 39009 ft 480 kts 158°
2026-05-09 00:53 -15.27140 52.83787 39018 ft 479 kts 158°
2026-05-09 00:54 -15.33249 52.86599 38999 ft 479 kts 158°
2026-05-09 00:54 -15.39307 52.89390 39009 ft 479 kts 159°
2026-05-09 00:55 -15.45411 52.92205 39002 ft 479 kts 159°
2026-05-09 00:55 -15.51511 52.95018 39009 ft 478 kts 158°
2026-05-09 00:56 -15.57590 52.97824 39011 ft 478 kts 158°
2026-05-09 00:56 -15.63631 53.00614 39010 ft 478 kts 158°
2026-05-09 00:57 -15.69713 53.03425 39011 ft 478 kts 158°
2026-05-09 00:57 -15.75811 53.06245 39016 ft 478 kts 158°
2026-05-09 00:58 -15.81849 53.09040 39018 ft 478 kts 159°
2026-05-09 00:58 -15.87926 53.11854 39018 ft 478 kts 159°
2026-05-09 00:59 -15.94004 53.14670 39018 ft 478 kts 158°
2026-05-09 00:59 -16.00087 53.17491 39020 ft 478 kts 158°
2026-05-09 01:00 -16.06171 53.20314 39022 ft 478 kts 158°
2026-05-09 01:00 -16.12212 53.23119 39025 ft 478 kts 158°
2026-05-09 01:01 -16.18308 53.25952 39023 ft 479 kts 159°
2026-05-09 01:01 -16.24390 53.28779 39026 ft 479 kts 158°
2026-05-09 01:02 -16.30484 53.31615 39026 ft 479 kts 158°
2026-05-09 01:02 -16.36565 53.34476 39027 ft 479 kts 155°
2026-05-09 01:03 -16.42001 53.38445 39029 ft 484 kts 140°
2026-05-09 01:03 -16.46915 53.43297 39031 ft 486 kts 137°
2026-05-09 01:04 -16.51699 53.48298 39031 ft 486 kts 137°
2026-05-09 01:04 -16.56446 53.53277 39031 ft 486 kts 137°
2026-05-09 01:05 -16.61241 53.58272 39032 ft 486 kts 137°
2026-05-09 01:06 -16.68417 53.65717 39029 ft 487 kts 137°
2026-05-09 01:06 -16.73220 53.70703 39031 ft 486 kts 137°
2026-05-09 01:07 -16.78021 53.75692 39036 ft 487 kts 137°
2026-05-09 01:07 -16.82828 53.80691 39037 ft 488 kts 137°
2026-05-09 01:08 -16.87616 53.85676 39037 ft 488 kts 137°
2026-05-09 01:08 -16.92427 53.90688 39039 ft 488 kts 137°
2026-05-09 01:09 -16.97239 53.95705 39037 ft 488 kts 137°
2026-05-09 01:09 -17.02029 54.00702 39037 ft 488 kts 137°
2026-05-09 01:10 -17.06828 54.05714 39039 ft 488 kts 137°
2026-05-09 01:10 -17.11632 54.10733 39042 ft 488 kts 137°
2026-05-09 01:11 -17.16448 54.15769 39044 ft 489 kts 137°
2026-05-09 01:11 -17.21228 54.20771 39045 ft 489 kts 137°
2026-05-09 01:12 -17.26047 54.25819 39045 ft 489 kts 137°
2026-05-09 01:12 -17.30864 54.30868 39046 ft 490 kts 137°
2026-05-09 01:13 -17.35677 54.35918 39043 ft 489 kts 137°
2026-05-09 01:13 -17.40458 54.40936 39045 ft 490 kts 137°
2026-05-09 01:14 -17.45276 54.45998 39045 ft 489 kts 137°
2026-05-09 01:14 -17.50081 54.51052 39046 ft 490 kts 137°
2026-05-09 01:15 -17.54866 54.56086 39043 ft 490 kts 137°
2026-05-09 01:15 -17.59712 54.61190 39045 ft 490 kts 137°
2026-05-09 01:16 -17.64493 54.66230 39050 ft 490 kts 137°
2026-05-09 01:16 -17.69308 54.71309 39051 ft 490 kts 137°
2026-05-09 01:17 -17.76525 54.78929 39048 ft 491 kts 137°
2026-05-09 01:17 -17.81344 54.84023 39048 ft 491 kts 137°
2026-05-09 01:18 -17.86157 54.89114 39048 ft 491 kts 137°
2026-05-09 01:18 -17.90975 54.94215 39056 ft 491 kts 137°
2026-05-09 01:19 -17.95700 54.99223 39053 ft 491 kts 137°
2026-05-09 01:19 -18.00512 55.04325 39053 ft 492 kts 137°
2026-05-09 01:20 -18.05333 55.09442 39053 ft 492 kts 137°
2026-05-09 01:20 -18.10117 55.14524 39053 ft 492 kts 137°
2026-05-09 01:21 -18.14936 55.19647 39053 ft 492 kts 137°
2026-05-09 01:21 -18.19755 55.24774 39058 ft 492 kts 137°
2026-05-09 01:22 -18.24572 55.29902 39056 ft 493 kts 137°
2026-05-09 01:22 -18.29404 55.35052 39056 ft 494 kts 137°
2026-05-09 01:23 -18.34200 55.40168 39058 ft 494 kts 137°
2026-05-09 01:23 -18.39023 55.45320 39059 ft 494 kts 137°
2026-05-09 01:24 -18.43847 55.50477 39059 ft 494 kts 136°
2026-05-09 01:24 -18.48684 55.55629 39059 ft 494 kts 138°
2026-05-09 01:25 -18.53641 55.60572 39061 ft 493 kts 139°
2026-05-09 01:25 -18.58651 55.65525 39062 ft 494 kts 139°
2026-05-09 01:26 -18.63683 55.70514 39064 ft 495 kts 139°
2026-05-09 01:26 -18.68700 55.75495 39064 ft 496 kts 139°
2026-05-09 01:27 -18.73725 55.80490 39064 ft 496 kts 139°
2026-05-09 01:27 -18.78740 55.85480 39067 ft 496 kts 139°
2026-05-09 01:28 -18.83675 55.90396 38917 ft 484 kts 139°
2026-05-09 01:28 -18.86102 55.92817 38621 ft 478 kts 139°
2026-05-09 01:28 -18.88511 55.95218 38140 ft 476 kts 139°
2026-05-09 01:29 -18.90937 55.97637 37476 ft 479 kts 139°
2026-05-09 01:29 -18.93367 56.00060 36854 ft 481 kts 139°
2026-05-09 01:29 -18.95805 56.02492 36233 ft 483 kts 139°
2026-05-09 01:29 -18.98256 56.04940 35526 ft 487 kts 138°
2026-05-09 01:30 -19.00729 56.07410 34803 ft 491 kts 138°
2026-05-09 01:30 -19.03191 56.09870 34072 ft 495 kts 138°
2026-05-09 01:30 -19.05706 56.12385 33204 ft 499 kts 138°
2026-05-09 01:30 -19.08234 56.14914 32404 ft 502 kts 138°
2026-05-09 01:31 -19.10777 56.17459 31571 ft 505 kts 138°
2026-05-09 01:31 -19.13332 56.20018 30896 ft 505 kts 138°
2026-05-09 01:31 -19.15879 56.22570 30348 ft 501 kts 138°
2026-05-09 01:31 -19.18402 56.25100 29697 ft 498 kts 138°
2026-05-09 01:32 -19.20911 56.27615 29080 ft 494 kts 137°
2026-05-09 01:32 -19.23398 56.30110 28499 ft 490 kts 138°
2026-05-09 01:32 -19.25856 56.32577 27900 ft 486 kts 138°
2026-05-09 01:32 -19.28303 56.35035 27327 ft 482 kts 138°
2026-05-09 01:33 -19.30700 56.37441 26749 ft 478 kts 137°
2026-05-09 01:33 -19.33130 56.39883 26173 ft 475 kts 137°
2026-05-09 01:33 -19.35517 56.42281 25566 ft 471 kts 137°
2026-05-09 01:33 -19.37855 56.44632 25059 ft 466 kts 137°
2026-05-09 01:34 -19.40200 56.46992 24506 ft 462 kts 136°
2026-05-09 01:34 -19.42521 56.49328 23978 ft 458 kts 136°
2026-05-09 01:34 -19.44823 56.51645 23380 ft 453 kts 136°
2026-05-09 01:34 -19.47086 56.53925 22672 ft 444 kts 136°
2026-05-09 01:35 -19.49309 56.56166 22099 ft 439 kts 136°
2026-05-09 01:35 -19.51511 56.58386 21576 ft 434 kts 136°
2026-05-09 01:35 -19.53685 56.60580 21047 ft 428 kts 136°
2026-05-09 01:35 -19.55836 56.62749 20527 ft 424 kts 136°
2026-05-09 01:36 -19.57934 56.64867 20016 ft 419 kts 136°
2026-05-09 01:36 -19.60039 56.66992 19505 ft 415 kts 136°
2026-05-09 01:36 -19.62121 56.69095 19002 ft 411 kts 136°
2026-05-09 01:36 -19.64184 56.71179 18491 ft 407 kts 136°
2026-05-09 01:37 -19.66201 56.73219 17953 ft 402 kts 136°
2026-05-09 01:37 -19.68234 56.75274 17432 ft 397 kts 136°
2026-05-09 01:37 -19.70198 56.77261 16943 ft 391 kts 136°
2026-05-09 01:37 -19.72157 56.79244 16467 ft 385 kts 136°
2026-05-09 01:38 -19.74080 56.81190 15988 ft 379 kts 136°
2026-05-09 01:38 -19.75975 56.83109 15520 ft 373 kts 135°
2026-05-09 01:38 -19.77821 56.84979 15053 ft 368 kts 136°
2026-05-09 01:38 -19.79662 56.86844 14600 ft 363 kts 136°
2026-05-09 01:39 -19.81474 56.88681 14155 ft 358 kts 135°
2026-05-09 01:39 -19.83261 56.90493 13679 ft 353 kts 135°
2026-05-09 01:39 -19.85027 56.92284 13226 ft 348 kts 135°
2026-05-09 01:39 -19.86768 56.94050 12781 ft 344 kts 136°
2026-05-09 01:40 -19.87933 56.95232 12488 ft 341 kts 136°
2026-05-09 01:40 -19.89640 56.96966 12063 ft 338 kts 135°
2026-05-09 01:40 -19.91334 56.98686 11628 ft 335 kts 135°
2026-05-09 01:40 -19.92995 57.00374 11328 ft 328 kts 135°
2026-05-09 01:41 -19.94587 57.01990 11238 ft 312 kts 135°
2026-05-09 01:41 -19.96123 57.03550 11123 ft 299 kts 135°
2026-05-09 01:41 -19.97604 57.05055 10985 ft 288 kts 135°
2026-05-09 01:41 -19.99020 57.06496 10852 ft 278 kts 135°
2026-05-09 01:42 -20.00412 57.07913 10644 ft 276 kts 135°
2026-05-09 01:42 -20.01798 57.09324 10319 ft 275 kts 135°
2026-05-09 01:42 -20.03176 57.10727 10032 ft 273 kts 135°
2026-05-09 01:42 -20.04546 57.12122 9709 ft 272 kts 135°
2026-05-09 01:43 -20.05897 57.13497 9425 ft 271 kts 135°
2026-05-09 01:43 -20.07259 57.14884 9135 ft 269 kts 134°
2026-05-09 01:43 -20.08606 57.16257 8846 ft 267 kts 134°
2026-05-09 01:43 -20.09947 57.17623 8566 ft 266 kts 134°
2026-05-09 01:44 -20.11278 57.18980 8283 ft 264 kts 134°
2026-05-09 01:44 -20.12599 57.20327 7982 ft 262 kts 134°
2026-05-09 01:44 -20.13916 57.21670 7722 ft 261 kts 134°
2026-05-09 01:44 -20.15222 57.23002 7430 ft 259 kts 134°
2026-05-09 01:45 -20.16503 57.24309 7157 ft 258 kts 134°
2026-05-09 01:45 -20.17791 57.25624 6875 ft 256 kts 134°
2026-05-09 01:45 -20.19074 57.26933 6580 ft 254 kts 133°
2026-05-09 01:45 -20.20252 57.28328 6274 ft 252 kts 125°
2026-05-09 01:46 -20.21273 57.29805 6090 ft 243 kts 123°
2026-05-09 01:46 -20.22252 57.31280 5770 ft 243 kts 123°
2026-05-09 01:46 -20.23209 57.32727 5641 ft 234 kts 123°
2026-05-09 01:46 -20.24129 57.34114 5542 ft 225 kts 123°
2026-05-09 01:47 -20.25015 57.35450 5451 ft 216 kts 123°
2026-05-09 01:47 -20.25875 57.36747 5359 ft 215 kts 123°
2026-05-09 01:47 -20.26739 57.38052 5206 ft 216 kts 123°
2026-05-09 01:47 -20.27593 57.39331 5087 ft 212 kts 123°
2026-05-09 01:48 -20.28456 57.40609 4984 ft 213 kts 123°
2026-05-09 01:48 -20.29325 57.41893 4804 ft 213 kts 123°
2026-05-09 01:48 -20.30186 57.43161 4570 ft 210 kts 123°
2026-05-09 01:48 -20.31054 57.44424 4368 ft 210 kts 126°
2026-05-09 01:49 -20.31932 57.45559 4247 ft 197 kts 123°
2026-05-09 01:49 -20.32583 57.46693 4106 ft 187 kts 116°
2026-05-09 01:49 -20.33185 57.47914 3911 ft 183 kts 115°
2026-05-09 01:49 -20.33760 57.49123 3903 ft 183 kts 114°
2026-05-09 01:50 -20.34343 57.50332 3903 ft 183 kts 114°
2026-05-09 01:50 -20.34925 57.51520 3861 ft 181 kts 115°
2026-05-09 01:50 -20.35496 57.52680 3662 ft 173 kts 115°
2026-05-09 01:50 -20.36033 57.53790 3394 ft 162 kts 114°
2026-05-09 01:51 -20.36531 57.54831 3136 ft 152 kts 114°
2026-05-09 01:51 -20.36993 57.55799 2882 ft 142 kts 115°
2026-05-09 01:51 -20.37430 57.56711 2651 ft 136 kts 115°
2026-05-09 01:51 -20.37862 57.57612 2449 ft 137 kts 115°
2026-05-09 01:52 -20.38297 57.58519 2259 ft 138 kts 115°
2026-05-09 01:52 -20.38732 57.59415 2036 ft 138 kts 115°
2026-05-09 01:52 -20.39183 57.60323 1798 ft 138 kts 116°
2026-05-09 01:52 -20.39629 57.61228 1653 ft 138 kts 114°
2026-05-09 01:53 -20.40077 57.62135 1430 ft 139 kts 114°
2026-05-09 01:53 -20.40496 57.63056 1176 ft 138 kts 113°
2026-05-09 01:53 -20.40919 57.63981 928 ft 140 kts 115°
2026-05-09 01:53 -20.41376 57.64887 725 ft 138 kts 115°
2026-05-09 01:54 -20.41803 57.65800 508 ft 139 kts 116°
2026-05-09 01:54 -20.42239 57.66720 313 ft 141 kts 117°
2026-05-09 01:54 -20.42685 57.67649 210 ft 133 kts 117°
2026-05-09 01:54 -20.43037 57.68381 189 ft 83 kts 117°
2026-05-09 01:55 -20.43227 57.68775 174 ft 48 kts 117°
2026-05-09 01:55 -20.43373 57.69076 156 ft 43 kts 117°
2026-05-09 01:55 -20.43461 57.69259 144 ft 16 kts 117°
2026-05-09 01:55 -20.43505 57.69350 139 ft 12 kts 117°
2026-05-09 01:56 -20.43549 57.69373 138 ft 7 kts 197°
2026-05-09 01:56 -20.43596 57.69350 141 ft 6 kts 205°
2026-05-09 01:56 -20.43628 57.69333 146 ft 8 kts 206°
2026-05-09 01:56 -20.43654 57.69307 151 ft 6 kts 245°
2026-05-09 01:57 -20.43642 57.69235 158 ft 12 kts 297°
2026-05-09 01:57 -20.43609 57.69166 163 ft 8 kts 297°
2026-05-09 01:57 -20.43582 57.69110 167 ft 12 kts 297°
2026-05-09 01:57 -20.43548 57.69041 172 ft 9 kts 297°
2026-05-09 01:58 -20.43522 57.68986 174 ft 8 kts 297°
2026-05-09 01:58 -20.43486 57.68912 176 ft 17 kts 297°
2026-05-09 01:58 -20.43431 57.68799 177 ft 18 kts 297°
2026-05-09 01:58 -20.43377 57.68685 180 ft 18 kts 297°
2026-05-09 01:59 -20.43324 57.68574 181 ft 18 kts 297°
2026-05-09 01:59 -20.43266 57.68453 183 ft 19 kts 297°
2026-05-09 01:59 -20.43207 57.68331 202 ft 18 kts 297°
2026-05-09 01:59 -20.43151 57.68215 191 ft 17 kts 297°
2026-05-09 02:00 -20.43131 57.68129 203 ft 10 kts 244°
2026-05-09 02:00 -20.43163 57.68100 202 ft 2 kts 216°
2026-05-09 02:00 -20.43176 57.68088 201 ft 4 kts 223°
2026-05-09 02:00 -20.43196 57.68062 204 ft 5 kts 235°
2026-05-09 02:01 -20.43220 57.68022 203 ft 5 kts 237°
2026-05-09 02:01 -20.43236 57.67996 203 ft 3 kts 237°
2026-05-09 02:01 -20.43248 57.67976 197 ft 4 kts 237°
2026-05-09 02:01 -20.43258 57.67960 202 ft 3 kts 237°
2026-05-09 02:02 -20.43263 57.67952 201 ft 0 kts 237°
2026-05-09 02:02 -20.43264 57.67951 201 ft 0 kts 237°